Observation data for Clyde on 02/15/2017      Previous  Date  Next       Current Mesonet Observations  Soil Data  Daily Summary Page  Observations in Plain Language
KCL2 150600Z 32008KT 03/02 A3014 RMK A01 T00330022  RH  092%=      5-min Rain = 0
KCL2 150601Z 32008KT 03/02 A3014 RMK A01 T00320021  RH  092%=      5-min Rain = 0
KCL2 150602Z 32007KT 03/02 A3014 RMK A01 T00320020  RH  092%=      5-min Rain = 0
KCL2 150603Z 32007KT 03/02 A3014 RMK A01 T00310020  RH  092%=      5-min Rain = 0
KCL2 150604Z 31008KT 03/02 A3014 RMK A01 T00300019  RH  092%=      5-min Rain = 0
KCL2 150605Z 31008KT 03/02 A3014 RMK A01 T00300020  RH  093%=      5-min Rain = 0
KCL2 150606Z 32008KT 03/02 A3014 RMK A01 T00300019  RH  093%=      5-min Rain = 0
KCL2 150607Z 32007KT 03/02 A3014 RMK A01 T00300019  RH  093%=      5-min Rain = 0
KCL2 150608Z 31008KT 03/02 A3014 RMK A01 T00300019  RH  093%=      5-min Rain = 0
KCL2 150609Z 32008KT 03/02 A3014 RMK A01 T00290019  RH  093%=      5-min Rain = 0
KCL2 150610Z 31008KT 03/02 A3014 RMK A01 T00290019  RH  093%=      5-min Rain = 0
KCL2 150611Z 31007KT 03/02 A3014 RMK A01 T00290019  RH  093%=      5-min Rain = 0
KCL2 150612Z 32008KT 03/02 A3014 RMK A01 T00300019  RH  093%=      5-min Rain = 0
KCL2 150613Z 32008KT 03/02 A3014 RMK A01 T00300020  RH  093%=      5-min Rain = 0
KCL2 150614Z 32007KT 03/02 A3014 RMK A01 T00300020  RH  093%=      5-min Rain = 0
KCL2 150615Z 32006KT 03/02 A3014 RMK A01 T00300020  RH  093%=      5-min Rain = 0
KCL2 150616Z 32006KT 03/02 A3014 RMK A01 T00310020  RH  093%=      5-min Rain = 0
KCL2 150617Z 32006KT 03/02 A3014 RMK A01 T00310020  RH  093%=      5-min Rain = 0
KCL2 150618Z 32006KT 03/02 A3014 RMK A01 T00310020  RH  093%=      5-min Rain = 0
KCL2 150619Z 32007KT 03/02 A3013 RMK A01 T00310020  RH  093%=      5-min Rain = 0
KCL2 150620Z 32007KT 03/02 A3013 RMK A01 T00310020  RH  093%=      5-min Rain = 0
KCL2 150621Z 32006KT 03/02 A3013 RMK A01 T00310020  RH  093%=      5-min Rain = 0
KCL2 150622Z 32006KT 03/02 A3013 RMK A01 T00310020  RH  092%=      5-min Rain = 0
KCL2 150623Z 32006KT 03/02 A3013 RMK A01 T00310020  RH  092%=      5-min Rain = 0
KCL2 150624Z 32006KT 03/02 A3013 RMK A01 T00310020  RH  092%=      5-min Rain = 0
KCL2 150625Z 32006KT 03/02 A3013 RMK A01 T00310020  RH  092%=      5-min Rain = 0
KCL2 150626Z 32006KT 03/02 A3013 RMK A01 T00310019  RH  092%=      5-min Rain = 0
KCL2 150627Z 32006KT 03/02 A3013 RMK A01 T00300019  RH  092%=      5-min Rain = 0
KCL2 150628Z 32006KT 03/02 A3013 RMK A01 T00300019  RH  092%=      5-min Rain = 0
KCL2 150629Z 32006KT 03/02 A3013 RMK A01 T00290018  RH  092%=      5-min Rain = 0
KCL2 150630Z 32006KT 03/02 A3013 RMK A01 T00290018  RH  093%=      5-min Rain = 0
KCL2 150631Z 32005KT 03/02 A3013 RMK A01 T00280018  RH  093%=      5-min Rain = 0
KCL2 150632Z 32005KT 03/02 A3013 RMK A01 T00280017  RH  093%=      5-min Rain = 0
KCL2 150633Z 32005KT 03/02 A3013 RMK A01 T00280017  RH  093%=      5-min Rain = 0
KCL2 150634Z 32006KT 03/02 A3013 RMK A01 T00270016  RH  093%=      5-min Rain = 0
KCL2 150635Z 32006KT 03/02 A3013 RMK A01 T00270016  RH  093%=      5-min Rain = 0
KCL2 150636Z 31006KT 03/02 A3013 RMK A01 T00260016  RH  093%=      5-min Rain = 0
KCL2 150637Z 31006KT 03/02 A3013 RMK A01 T00260016  RH  093%=      5-min Rain = 0
KCL2 150638Z 31006KT 03/02 A3013 RMK A01 T00250015  RH  093%=      5-min Rain = 0
KCL2 150639Z 31005KT 03/02 A3013 RMK A01 T00250015  RH  093%=      5-min Rain = 0
KCL2 150640Z 31006KT 02/01 A3013 RMK A01 T00240014  RH  093%=      5-min Rain = 0
KCL2 150641Z 30006KT 02/01 A3013 RMK A01 T00240014  RH  093%=      5-min Rain = 0
KCL2 150642Z 30006KT 02/01 A3013 RMK A01 T00230014  RH  093%=      5-min Rain = 0
KCL2 150643Z 30006KT 02/01 A3013 RMK A01 T00230013  RH  094%=      5-min Rain = 0
KCL2 150644Z 30005KT 02/01 A3013 RMK A01 T00230014  RH  094%=      5-min Rain = 0
KCL2 150645Z 30005KT 02/01 A3013 RMK A01 T00220013  RH  094%=      5-min Rain = 0
KCL2 150646Z 30005KT 02/01 A3013 RMK A01 T00220013  RH  094%=      5-min Rain = 0
KCL2 150647Z 30005KT 02/01 A3013 RMK A01 T00220013  RH  094%=      5-min Rain = 0
KCL2 150648Z 30005KT 02/01 A3013 RMK A01 T00210012  RH  094%=      5-min Rain = 0
KCL2 150649Z 30005KT 02/01 A3013 RMK A01 T00200012  RH  094%=      5-min Rain = 0
KCL2 150650Z 30005KT 02/01 A3013 RMK A01 T00200012  RH  094%=      5-min Rain = 0
KCL2 150651Z 30005KT 02/01 A3013 RMK A01 T00200012  RH  094%=      5-min Rain = 0
KCL2 150652Z 29005KT 02/01 A3013 RMK A01 T00200012  RH  095%=      5-min Rain = 0
KCL2 150653Z 29005KT 02/01 A3013 RMK A01 T00200012  RH  095%=      5-min Rain = 0
KCL2 150654Z 29005KT 02/01 A3013 RMK A01 T00200013  RH  095%=      5-min Rain = 0
KCL2 150655Z 29004KT 02/01 A3013 RMK A01 T00190013  RH  095%=      5-min Rain = 0
KCL2 150701Z 29004KT 02/02 A3013 RMK A01 T00210015  RH  096%=      5-min Rain = 0
KCL2 150702Z 29004KT 02/02 A3013 RMK A01 T00210015  RH  096%=      5-min Rain = 0
KCL2 150703Z 29004KT 02/02 A3013 RMK A01 T00210015  RH  096%=      5-min Rain = 0
KCL2 150704Z 29004KT 02/02 A3013 RMK A01 T00210015  RH  096%=      5-min Rain = 0
KCL2 150705Z 29004KT 02/02 A3013 RMK A01 T00220016  RH  096%=      5-min Rain = 0
KCL2 150706Z 29004KT 02/02 A3013 RMK A01 T00220016  RH  096%=      5-min Rain = 0
KCL2 150707Z 29004KT 02/02 A3013 RMK A01 T00220016  RH  096%=      5-min Rain = 0
KCL2 150708Z 29004KT 02/02 A3013 RMK A01 T00230017  RH  096%=      5-min Rain = 0
KCL2 150709Z 29004KT 02/02 A3013 RMK A01 T00230017  RH  096%=      5-min Rain = 0
KCL2 150710Z 29004KT 02/02 A3013 RMK A01 T00220016  RH  096%=      5-min Rain = 0
KCL2 150711Z 29004KT 02/02 A3013 RMK A01 T00220016  RH  096%=      5-min Rain = 0
KCL2 150712Z 28004KT 02/02 A3013 RMK A01 T00230016  RH  096%=      5-min Rain = 0
KCL2 150713Z 28004KT 02/02 A3014 RMK A01 T00220016  RH  095%=      5-min Rain = 0
KCL2 150714Z 28004KT 02/02 A3014 RMK A01 T00220015  RH  095%=      5-min Rain = 0
KCL2 150715Z 29004KT 02/01 A3014 RMK A01 T00210014  RH  095%=      5-min Rain = 0
KCL2 150716Z 29004KT 02/01 A3014 RMK A01 T00210014  RH  095%=      5-min Rain = 0
KCL2 150717Z 28004KT 02/01 A3014 RMK A01 T00200013  RH  095%=      5-min Rain = 0
KCL2 150718Z 28004KT 02/01 A3014 RMK A01 T00200013  RH  095%=      5-min Rain = 0
KCL2 150719Z 28004KT 02/01 A3014 RMK A01 T00190012  RH  095%=      5-min Rain = 0
KCL2 150720Z 28004KT 02/01 A3014 RMK A01 T00190012  RH  095%=      5-min Rain = 0
KCL2 150721Z 28004KT 02/01 A3014 RMK A01 T00180011  RH  095%=      5-min Rain = 0
KCL2 150722Z 28005KT 02/01 A3014 RMK A01 T00180011  RH  095%=      5-min Rain = 0
KCL2 150723Z 28005KT 02/01 A3014 RMK A01 T00170010  RH  095%=      5-min Rain = 0
KCL2 150724Z 28005KT 02/01 A3014 RMK A01 T00160009  RH  095%=      5-min Rain = 0
KCL2 150725Z 28005KT 02/01 A3014 RMK A01 T00160009  RH  095%=      5-min Rain = 0
KCL2 150726Z 28005KT 02/01 A3014 RMK A01 T00150008  RH  095%=      5-min Rain = 0
KCL2 150727Z 28005KT 02/01 A3014 RMK A01 T00150008  RH  095%=      5-min Rain = 0
KCL2 150728Z 28006KT 01/01 A3014 RMK A01 T00140008  RH  095%=      5-min Rain = 0
KCL2 150729Z 28006KT 01/01 A3014 RMK A01 T00140008  RH  096%=      5-min Rain = 0
KCL2 150730Z 28006KT 01/01 A3014 RMK A01 T00140008  RH  096%=      5-min Rain = 0
KCL2 150731Z 28006KT 01/01 A3014 RMK A01 T00140008  RH  096%=      5-min Rain = 0
KCL2 150732Z 28005KT 01/01 A3014 RMK A01 T00140008  RH  096%=      5-min Rain = 0
KCL2 150733Z 28005KT 01/01 A3014 RMK A01 T00140009  RH  096%=      5-min Rain = 0
KCL2 150734Z 28005KT 01/01 A3014 RMK A01 T00140008  RH  096%=      5-min Rain = 0
KCL2 150735Z 28005KT 01/01 A3014 RMK A01 T00140009  RH  096%=      5-min Rain = 0
KCL2 150736Z 28005KT 01/01 A3014 RMK A01 T00140009  RH  096%=      5-min Rain = 0
KCL2 150737Z 28005KT 02/01 A3014 RMK A01 T00150010  RH  096%=      5-min Rain = 0
KCL2 150738Z 28004KT 02/01 A3014 RMK A01 T00150010  RH  096%=      5-min Rain = 0
KCL2 150739Z 28004KT 02/01 A3014 RMK A01 T00150010  RH  096%=      5-min Rain = 0
KCL2 150740Z 28004KT 02/01 A3014 RMK A01 T00150010  RH  096%=      5-min Rain = 0
KCL2 150741Z 27004KT 02/01 A3014 RMK A01 T00150010  RH  097%=      5-min Rain = 0
KCL2 150742Z 27004KT 02/01 A3014 RMK A01 T00150010  RH  096%=      5-min Rain = 0
KCL2 150743Z 27004KT 02/01 A3015 RMK A01 T00150010  RH  096%=      5-min Rain = 0
KCL2 150744Z 27004KT 02/01 A3015 RMK A01 T00160010  RH  096%=      5-min Rain = 0
KCL2 150745Z 27004KT 02/01 A3015 RMK A01 T00150010  RH  096%=      5-min Rain = 0
KCL2 150746Z 27004KT 02/01 A3015 RMK A01 T00160010  RH  096%=      5-min Rain = 0
KCL2 150747Z 27004KT 02/01 A3015 RMK A01 T00160010  RH  096%=      5-min Rain = 0
KCL2 150748Z 27004KT 02/01 A3015 RMK A01 T00160010  RH  096%=      5-min Rain = 0
KCL2 150749Z 27004KT 02/01 A3015 RMK A01 T00160010  RH  096%=      5-min Rain = 0
KCL2 150750Z 27004KT 02/01 A3015 RMK A01 T00160010  RH  096%=      5-min Rain = 0
KCL2 150751Z 27005KT 02/01 A3015 RMK A01 T00160010  RH  096%=      5-min Rain = 0
KCL2 150752Z 27005KT 02/01 A3015 RMK A01 T00160010  RH  096%=      5-min Rain = 0
KCL2 150753Z 26005KT 02/01 A3015 RMK A01 T00160010  RH  096%=      5-min Rain = 0
KCL2 150754Z 26005KT 02/01 A3015 RMK A01 T00150009  RH  096%=      5-min Rain = 0
KCL2 150755Z 26005KT 02/01 A3015 RMK A01 T00150009  RH  096%=      5-min Rain = 0
KCL2 150756Z 26005KT 02/01 A3015 RMK A01 T00150009  RH  096%=      5-min Rain = 0
KCL2 150757Z 26006KT 02/01 A3015 RMK A01 T00160009  RH  096%=      5-min Rain = 0
KCL2 150758Z 26006KT 02/01 A3015 RMK A01 T00160009  RH  096%=      5-min Rain = 0
KCL2 150759Z 26006KT 02/01 A3015 RMK A01 T00150009  RH  096%=      5-min Rain = 0
KCL2 150800Z 26006KT 02/01 A3015 RMK A01 T00150009  RH  096%=      5-min Rain = 0
KCL2 150801Z 26006KT 02/01 A3015 RMK A01 T00160010  RH  096%=      5-min Rain = 0
KCL2 150802Z 26006KT 02/01 A3015 RMK A01 T00160009  RH  096%=      5-min Rain = 0
KCL2 150803Z 26006KT 02/01 A3015 RMK A01 T00150009  RH  096%=      5-min Rain = 0
KCL2 150804Z 26006KT 02/01 A3015 RMK A01 T00150009  RH  096%=      5-min Rain = 0
KCL2 150805Z 26007KT 02/01 A3015 RMK A01 T00160010  RH  096%=      5-min Rain = 0
KCL2 150806Z 26006KT 02/01 A3015 RMK A01 T00160009  RH  096%=      5-min Rain = 0
KCL2 150807Z 26006KT 02/01 A3015 RMK A01 T00150009  RH  096%=      5-min Rain = 0
KCL2 150808Z 26006KT 02/01 A3015 RMK A01 T00150009  RH  096%=      5-min Rain = 0
KCL2 150809Z 27006KT 02/01 A3015 RMK A01 T00160009  RH  096%=      5-min Rain = 0
KCL2 150810Z 26006KT 02/01 A3015 RMK A01 T00160009  RH  096%=      5-min Rain = 0
KCL2 150811Z 26006KT 02/01 A3015 RMK A01 T00150009  RH  096%=      5-min Rain = 0
KCL2 150812Z 26006KT 02/01 A3015 RMK A01 T00150009  RH  096%=      5-min Rain = 0
KCL2 150813Z 26006KT 02/01 A3015 RMK A01 T00150008  RH  095%=      5-min Rain = 0
KCL2 150814Z 26006KT 02/01 A3016 RMK A01 T00150008  RH  095%=      5-min Rain = 0
KCL2 150815Z 26006KT 01/01 A3016 RMK A01 T00140007  RH  095%=      5-min Rain = 0
KCL2 150816Z 26006KT 01/01 A3016 RMK A01 T00140008  RH  095%=      5-min Rain = 0
KCL2 150817Z 26006KT 01/01 A3016 RMK A01 T00140008  RH  095%=      5-min Rain = 0
KCL2 150818Z 26006KT 01/01 A3016 RMK A01 T00140007  RH  095%=      5-min Rain = 0
KCL2 150819Z 27005KT 01/01 A3016 RMK A01 T00130007  RH  095%=      5-min Rain = 0
KCL2 150820Z 27005KT 01/01 A3016 RMK A01 T00130006  RH  095%=      5-min Rain = 0
KCL2 150821Z 27005KT 01/01 A3016 RMK A01 T00130006  RH  095%=      5-min Rain = 0
KCL2 150822Z 27005KT 01/01 A3016 RMK A01 T00120006  RH  095%=      5-min Rain = 0
KCL2 150823Z 27005KT 01/01 A3016 RMK A01 T00120005  RH  095%=      5-min Rain = 0
KCL2 150824Z 27005KT 01/01 A3016 RMK A01 T00120006  RH  095%=      5-min Rain = 0
KCL2 150825Z 27005KT 01/01 A3016 RMK A01 T00120005  RH  095%=      5-min Rain = 0
KCL2 150826Z 27005KT 01/01 A3016 RMK A01 T00120005  RH  095%=      5-min Rain = 0
KCL2 150827Z 27005KT 01/01 A3016 RMK A01 T00120005  RH  095%=      5-min Rain = 0
KCL2 150828Z 27005KT 01/01 A3016 RMK A01 T00120005  RH  095%=      5-min Rain = 0
KCL2 150829Z 27006KT 01/01 A3016 RMK A01 T00110005  RH  095%=      5-min Rain = 0
KCL2 150830Z 26006KT 01/00 A3016 RMK A01 T00110004  RH  095%=      5-min Rain = 0
KCL2 150831Z 26006KT 01/00 A3016 RMK A01 T00110004  RH  095%=      5-min Rain = 0
KCL2 150832Z 26006KT 01/00 A3016 RMK A01 T00110004  RH  095%=      5-min Rain = 0
KCL2 150833Z 26006KT 01/00 A3016 RMK A01 T00110004  RH  095%=      5-min Rain = 0
KCL2 150834Z 26006KT 01/00 A3016 RMK A01 T00110004  RH  095%=      5-min Rain = 0
KCL2 150835Z 26006KT 01/00 A3015 RMK A01 T00100003  RH  095%=      5-min Rain = 0
KCL2 150836Z 25006KT 01/00 A3015 RMK A01 T00110004  RH  095%=      5-min Rain = 0
KCL2 150837Z 25006KT 01/00 A3015 RMK A01 T00100003  RH  095%=      5-min Rain = 0
KCL2 150838Z 26006KT 01/00 A3015 RMK A01 T00100003  RH  095%=      5-min Rain = 0
KCL2 150839Z 26006KT 01/00 A3015 RMK A01 T00100003  RH  095%=      5-min Rain = 0
KCL2 150840Z 26006KT 01/00 A3015 RMK A01 T00100003  RH  095%=      5-min Rain = 0
KCL2 150841Z 26006KT 01/00 A3015 RMK A01 T00100003  RH  095%=      5-min Rain = 0
KCL2 150842Z 26006KT 01/00 A3015 RMK A01 T00100004  RH  095%=      5-min Rain = 0
KCL2 150843Z 26007KT 01/00 A3015 RMK A01 T00100003  RH  095%=      5-min Rain = 0
KCL2 150844Z 26007KT 01/00 A3015 RMK A01 T00100003  RH  095%=      5-min Rain = 0
KCL2 150845Z 26007KT 01/00 A3015 RMK A01 T00100003  RH  095%=      5-min Rain = 0
KCL2 150846Z 26007KT 01/00 A3015 RMK A01 T00090003  RH  095%=      5-min Rain = 0
KCL2 150847Z 26007KT 01/00 A3015 RMK A01 T00090003  RH  096%=      5-min Rain = 0
KCL2 150848Z 26006KT 01/00 A3015 RMK A01 T00100003  RH  096%=      5-min Rain = 0
KCL2 150849Z 26006KT 01/00 A3015 RMK A01 T00100004  RH  096%=      5-min Rain = 0
KCL2 150850Z 26006KT 01/00 A3015 RMK A01 T00100004  RH  096%=      5-min Rain = 0
KCL2 150851Z 25006KT 01/00 A3015 RMK A01 T00100003  RH  095%=      5-min Rain = 0
KCL2 150852Z 26007KT 01/00 A3015 RMK A01 T00100003  RH  095%=      5-min Rain = 0
KCL2 150853Z 26007KT 01/00 A3015 RMK A01 T00090003  RH  095%=      5-min Rain = 0
KCL2 150854Z 26007KT 01/00 A3015 RMK A01 T00100003  RH  095%=      5-min Rain = 0
KCL2 150855Z 26006KT 01/00 A3015 RMK A01 T00090002  RH  095%=      5-min Rain = 0
KCL2 150856Z 26007KT 01/00 A3015 RMK A01 T00090002  RH  095%=      5-min Rain = 0
KCL2 150857Z 26007KT 01/00 A3015 RMK A01 T00090003  RH  095%=      5-min Rain = 0
KCL2 150858Z 26006KT 01/00 A3015 RMK A01 T00090002  RH  095%=      5-min Rain = 0
KCL2 150859Z 26007KT 01/00 A3015 RMK A01 T00090002  RH  095%=      5-min Rain = 0
KCL2 150900Z 26007KT 01/00 A3015 RMK A01 T00090002  RH  095%=      5-min Rain = 0
KCL2 150901Z 27007KT 01/00 A3015 RMK A01 T00090002  RH  095%=      5-min Rain = 0
KCL2 150902Z 27007KT 01/00 A3015 RMK A01 T00090002  RH  095%=      5-min Rain = 0
KCL2 150903Z 27006KT 01/00 A3015 RMK A01 T00090002  RH  095%=      5-min Rain = 0
KCL2 150904Z 27006KT 01/00 A3015 RMK A01 T00090002  RH  095%=      5-min Rain = 0
KCL2 150905Z 27006KT 01/00 A3015 RMK A01 T00090002  RH  095%=      5-min Rain = 0
KCL2 150906Z 27006KT 01/00 A3015 RMK A01 T00080001  RH  095%=      5-min Rain = 0
KCL2 150907Z 27006KT 01/00 A3015 RMK A01 T00080001  RH  095%=      5-min Rain = 0
KCL2 150908Z 27006KT 01/00 A3015 RMK A01 T00080001  RH  095%=      5-min Rain = 0
KCL2 150909Z 27006KT 01/00 A3015 RMK A01 T00070000  RH  095%=      5-min Rain = 0
KCL2 150910Z 27006KT 01/00 A3015 RMK A01 T00070000  RH  095%=      5-min Rain = 0
KCL2 150911Z 27006KT 01/00 A3015 RMK A01 T00070001  RH  095%=      5-min Rain = 0
KCL2 150912Z 27006KT 01/00 A3015 RMK A01 T00070000  RH  095%=      5-min Rain = 0
KCL2 150913Z 27006KT 01/00 A3015 RMK A01 T00070000  RH  095%=      5-min Rain = 0
KCL2 150914Z 27006KT 01/00 A3015 RMK A01 T00060000  RH  096%=      5-min Rain = 0
KCL2 150915Z 28006KT 01/00 A3015 RMK A01 T00060000  RH  096%=      5-min Rain = 0
KCL2 150916Z 28007KT 01/00 A3015 RMK A01 T00060000  RH  096%=      5-min Rain = 0
KCL2 150917Z 28007KT 01/00 A3015 RMK A01 T00060000  RH  096%=      5-min Rain = 0
KCL2 150918Z 28007KT 01/00 A3015 RMK A01 T00060000  RH  096%=      5-min Rain = 0
KCL2 150919Z 28007KT 01/00 A3015 RMK A01 T00060000  RH  096%=      5-min Rain = 0
KCL2 150920Z 28007KT 01/00 A3015 RMK A01 T00070001  RH  096%=      5-min Rain = 0
KCL2 150921Z 28007KT 01/00 A3015 RMK A01 T00060001  RH  096%=      5-min Rain = 0
KCL2 150922Z 28007KT 01/00 A3015 RMK A01 T00060001  RH  096%=      5-min Rain = 0
KCL2 150923Z 28007KT 01/00 A3015 RMK A01 T00070001  RH  096%=      5-min Rain = 0
KCL2 150924Z 28007KT 01/00 A3015 RMK A01 T00070001  RH  096%=      5-min Rain = 0
KCL2 150925Z 28007KT 01/00 A3015 RMK A01 T00070001  RH  096%=      5-min Rain = 0
KCL2 150926Z 28007KT 01/00 A3015 RMK A01 T00070001  RH  096%=      5-min Rain = 0
KCL2 150927Z 28007KT 01/00 A3015 RMK A01 T00070001  RH  096%=      5-min Rain = 0
KCL2 150928Z 28007KT 01/00 A3015 RMK A01 T00070001  RH  096%=      5-min Rain = 0
KCL2 150929Z 28006KT 01/00 A3015 RMK A01 T00070001  RH  095%=      5-min Rain = 0
KCL2 150930Z 28007KT 01/00 A3015 RMK A01 T00070001  RH  095%=      5-min Rain = 0
KCL2 150931Z 29007KT 01/00 A3014 RMK A01 T00070001  RH  095%=      5-min Rain = 0
KCL2 150932Z 29007KT 01/00 A3014 RMK A01 T00070001  RH  095%=      5-min Rain = 0
KCL2 150933Z 29007KT 01/00 A3014 RMK A01 T00070001  RH  095%=      5-min Rain = 0
KCL2 150934Z 29007KT 01/00 A3014 RMK A01 T00070001  RH  095%=      5-min Rain = 0
KCL2 150935Z 29007KT 01/00 A3014 RMK A01 T00080001  RH  095%=      5-min Rain = 0
KCL2 150936Z 29008KT 01/00 A3014 RMK A01 T00080001  RH  095%=      5-min Rain = 0
KCL2 150937Z 29008KT 01/00 A3015 RMK A01 T00080001  RH  095%=      5-min Rain = 0
KCL2 150938Z 29008KT 01/00 A3015 RMK A01 T00080001  RH  095%=      5-min Rain = 0
KCL2 150939Z 29008KT 01/00 A3014 RMK A01 T00080001  RH  095%=      5-min Rain = 0
KCL2 150940Z 29008KT 01/00 A3014 RMK A01 T00090001  RH  095%=      5-min Rain = 0
KCL2 150941Z 29008KT 01/00 A3014 RMK A01 T00090002  RH  095%=      5-min Rain = 0
KCL2 150942Z 29007KT 01/00 A3014 RMK A01 T00100002  RH  095%=      5-min Rain = 0
KCL2 150943Z 29008KT 01/00 A3014 RMK A01 T00110003  RH  094%=      5-min Rain = 0
KCL2 150944Z 29008KT 01/00 A3014 RMK A01 T00110003  RH  094%=      5-min Rain = 0
KCL2 150945Z 29008KT 01/00 A3014 RMK A01 T00110003  RH  094%=      5-min Rain = 0
KCL2 150946Z 29008KT 01/00 A3014 RMK A01 T00120003  RH  094%=      5-min Rain = 0
KCL2 150947Z 28008KT 01/00 A3014 RMK A01 T00120002  RH  093%=      5-min Rain = 0
KCL2 150948Z 28007KT 01/00 A3015 RMK A01 T00120002  RH  093%=      5-min Rain = 0
KCL2 150949Z 28008KT 01/00 A3015 RMK A01 T00120002  RH  093%=      5-min Rain = 0
KCL2 150950Z 28007KT 01/00 A3015 RMK A01 T00120002  RH  093%=      5-min Rain = 0
KCL2 150951Z 28007KT 01/00 A3014 RMK A01 T00120002  RH  093%=      5-min Rain = 0
KCL2 150952Z 28007KT 01/00 A3014 RMK A01 T00120002  RH  093%=      5-min Rain = 0
KCL2 150953Z 28007KT 01/00 A3014 RMK A01 T00120002  RH  093%=      5-min Rain = 0
KCL2 150954Z 28007KT 01/00 A3014 RMK A01 T00120002  RH  093%=      5-min Rain = 0
KCL2 150955Z 28006KT 01/00 A3014 RMK A01 T00120001  RH  093%=      5-min Rain = 0
KCL2 150956Z 28006KT 01/00 A3014 RMK A01 T00120001  RH  093%=      5-min Rain = 0
KCL2 150957Z 27006KT 01/00 A3014 RMK A01 T00110000  RH  093%=      5-min Rain = 0
KCL2 150958Z 28006KT 01/00 A3014 RMK A01 T00100000  RH  093%=      5-min Rain = 0
KCL2 150959Z 27006KT 01/00 A3014 RMK A01 T001000-0  RH  093%=      5-min Rain = 0
KCL2 151000Z 28006KT 01/00 A3014 RMK A01 T001000-0  RH  093%=      5-min Rain = 0
KCL2 151001Z 27006KT 01/00 A3014 RMK A01 T000900-0  RH  093%=      5-min Rain = 0
KCL2 151002Z 27006KT 01/00 A3014 RMK A01 T001000-0  RH  093%=      5-min Rain = 0
KCL2 151003Z 27006KT 01/00 A3014 RMK A01 T000900-0  RH  093%=      5-min Rain = 0
KCL2 151004Z 27006KT 01/M00 A3014 RMK A01 T00091001  RH  093%=      5-min Rain = 0
KCL2 151005Z 27006KT 01/M00 A3014 RMK A01 T00091001  RH  093%=      5-min Rain = 0
KCL2 151006Z 27006KT 01/M00 A3014 RMK A01 T00081001  RH  093%=      5-min Rain = 0
KCL2 151007Z 27006KT 01/M00 A3014 RMK A01 T00081001  RH  094%=      5-min Rain = 0
KCL2 151008Z 27006KT 01/M00 A3014 RMK A01 T00081001  RH  094%=      5-min Rain = 0
KCL2 151009Z 27006KT 01/M00 A3014 RMK A01 T00081001  RH  094%=      5-min Rain = 0
KCL2 151010Z 27006KT 01/M00 A3014 RMK A01 T00081001  RH  094%=      5-min Rain = 0
KCL2 151011Z 27006KT 01/M00 A3014 RMK A01 T00081001  RH  094%=      5-min Rain = 0
KCL2 151012Z 27006KT 01/M00 A3014 RMK A01 T00071002  RH  094%=      5-min Rain = 0
KCL2 151013Z 27006KT 01/M00 A3014 RMK A01 T00061002  RH  094%=      5-min Rain = 0
KCL2 151014Z 27006KT 01/M00 A3014 RMK A01 T00061002  RH  094%=      5-min Rain = 0
KCL2 151015Z 27007KT 01/M00 A3014 RMK A01 T00061002  RH  094%=      5-min Rain = 0
KCL2 151016Z 27007KT 01/M00 A3014 RMK A01 T00061002  RH  094%=      5-min Rain = 0
KCL2 151017Z 27007KT 01/M00 A3014 RMK A01 T00061002  RH  095%=      5-min Rain = 0
KCL2 151018Z 27007KT 01/M00 A3014 RMK A01 T00061002  RH  095%=      5-min Rain = 0
KCL2 151019Z 27007KT 01/M00 A3014 RMK A01 T00061002  RH  095%=      5-min Rain = 0
KCL2 151020Z 27007KT 01/M00 A3014 RMK A01 T00061002  RH  095%=      5-min Rain = 0
KCL2 151021Z 27007KT 01/M00 A3014 RMK A01 T00061002  RH  095%=      5-min Rain = 0
KCL2 151022Z 27007KT 01/M00 A3014 RMK A01 T00061002  RH  095%=      5-min Rain = 0
KCL2 151023Z 27006KT 01/M00 A3014 RMK A01 T00061002  RH  095%=      5-min Rain = 0
KCL2 151024Z 27007KT 01/M00 A3015 RMK A01 T00061002  RH  094%=      5-min Rain = 0
KCL2 151025Z 27007KT 01/M00 A3015 RMK A01 T00061002  RH  094%=      5-min Rain = 0
KCL2 151026Z 28007KT 01/M00 A3015 RMK A01 T00061002  RH  094%=      5-min Rain = 0
KCL2 151027Z 28007KT 01/M00 A3015 RMK A01 T00061002  RH  095%=      5-min Rain = 0
KCL2 151028Z 28007KT 01/M00 A3015 RMK A01 T00051002  RH  095%=      5-min Rain = 0
KCL2 151029Z 28007KT 01/M00 A3015 RMK A01 T00051002  RH  095%=      5-min Rain = 0
KCL2 151030Z 28007KT 01/M00 A3014 RMK A01 T00051002  RH  095%=      5-min Rain = 0
KCL2 151031Z 28007KT 01/M00 A3014 RMK A01 T00051002  RH  095%=      5-min Rain = 0
KCL2 151032Z 28008KT 01/M00 A3014 RMK A01 T00061002  RH  095%=      5-min Rain = 0
KCL2 151033Z 28008KT 01/M00 A3015 RMK A01 T00061002  RH  095%=      5-min Rain = 0
KCL2 151034Z 28007KT 01/M00 A3015 RMK A01 T00061001  RH  095%=      5-min Rain = 0
KCL2 151035Z 28007KT 01/M00 A3015 RMK A01 T00071001  RH  094%=      5-min Rain = 0
KCL2 151036Z 27007KT 01/M00 A3015 RMK A01 T00071002  RH  094%=      5-min Rain = 0
KCL2 151037Z 27007KT 01/M00 A3015 RMK A01 T00071002  RH  094%=      5-min Rain = 0
KCL2 151038Z 27007KT 01/M00 A3014 RMK A01 T00061002  RH  094%=      5-min Rain = 0
KCL2 151039Z 27006KT 01/M00 A3014 RMK A01 T00061003  RH  094%=      5-min Rain = 0
KCL2 151040Z 27006KT 01/M00 A3014 RMK A01 T00061003  RH  094%=      5-min Rain = 0
KCL2 151041Z 28007KT 01/M00 A3014 RMK A01 T00061003  RH  094%=      5-min Rain = 0
KCL2 151042Z 27007KT 01/M00 A3014 RMK A01 T00061003  RH  094%=      5-min Rain = 0
KCL2 151043Z 28007KT 01/M00 A3015 RMK A01 T00061003  RH  094%=      5-min Rain = 0
KCL2 151044Z 27007KT 01/M00 A3015 RMK A01 T00061003  RH  094%=      5-min Rain = 0
KCL2 151045Z 28007KT 01/M00 A3015 RMK A01 T00061004  RH  094%=      5-min Rain = 0
KCL2 151046Z 28007KT 01/M00 A3015 RMK A01 T00051004  RH  094%=      5-min Rain = 0
KCL2 151047Z 28007KT 01/M00 A3015 RMK A01 T00051004  RH  094%=      5-min Rain = 0
KCL2 151048Z 28007KT 01/M00 A3015 RMK A01 T00051004  RH  094%=      5-min Rain = 0
KCL2 151049Z 28007KT 01/M00 A3015 RMK A01 T00051004  RH  094%=      5-min Rain = 0
KCL2 151050Z 28007KT 01/M00 A3015 RMK A01 T00051004  RH  094%=      5-min Rain = 0
KCL2 151051Z 28007KT 01/M00 A3015 RMK A01 T00061004  RH  093%=      5-min Rain = 0
KCL2 151052Z 28008KT 01/M00 A3015 RMK A01 T00051004  RH  093%=      5-min Rain = 0
KCL2 151053Z 28007KT 01/M00 A3015 RMK A01 T00051004  RH  093%=      5-min Rain = 0
KCL2 151054Z 28008KT 01/M00 A3015 RMK A01 T00061003  RH  093%=      5-min Rain = 0
KCL2 151055Z 28008KT 01/M00 A3015 RMK A01 T00061003  RH  093%=      5-min Rain = 0
KCL2 151056Z 29008KT 01/M00 A3015 RMK A01 T00071003  RH  093%=      5-min Rain = 0
KCL2 151057Z 28008KT 01/M00 A3015 RMK A01 T00071003  RH  093%=      5-min Rain = 0
KCL2 151058Z 28008KT 01/M00 A3015 RMK A01 T00071003  RH  093%=      5-min Rain = 0
KCL2 151059Z 29008KT 01/M00 A3015 RMK A01 T00081002  RH  093%=      5-min Rain = 0
KCL2 151100Z 28009KT 01/M00 A3015 RMK A01 T00081002  RH  093%=      5-min Rain = 0
KCL2 151101Z 29008KT 01/M00 A3015 RMK A01 T00091002  RH  093%=      5-min Rain = 0
KCL2 151102Z 29008KT 01/M00 A3015 RMK A01 T00091002  RH  092%=      5-min Rain = 0
KCL2 151103Z 29008KT 01/M00 A3015 RMK A01 T00091002  RH  092%=      5-min Rain = 0
KCL2 151104Z 29008KT 01/M00 A3015 RMK A01 T00081003  RH  092%=      5-min Rain = 0
KCL2 151105Z 28008KT 01/M00 A3015 RMK A01 T00081003  RH  092%=      5-min Rain = 0
KCL2 151106Z 28008KT 01/M00 A3015 RMK A01 T00081003  RH  092%=      5-min Rain = 0
KCL2 151107Z 28008KT 01/M00 A3015 RMK A01 T00071004  RH  092%=      5-min Rain = 0
KCL2 151108Z 28008KT 01/M00 A3015 RMK A01 T00071004  RH  093%=      5-min Rain = 0
KCL2 151109Z 28008KT 01/M00 A3015 RMK A01 T00061004  RH  093%=      5-min Rain = 0
KCL2 151110Z 28007KT 01/M00 A3015 RMK A01 T00061004  RH  093%=      5-min Rain = 0
KCL2 151111Z 28007KT 01/M01 A3015 RMK A01 T00051005  RH  093%=      5-min Rain = 0
KCL2 151112Z 28007KT 01/M01 A3015 RMK A01 T00051005  RH  093%=      5-min Rain = 0
KCL2 151113Z 28007KT 01/M01 A3015 RMK A01 T00051005  RH  093%=      5-min Rain = 0
KCL2 151114Z 28007KT 00/M01 A3015 RMK A01 T00041005  RH  093%=      5-min Rain = 0
KCL2 151115Z 28007KT 00/M01 A3015 RMK A01 T00041006  RH  093%=      5-min Rain = 0
KCL2 151116Z 28008KT 00/M01 A3015 RMK A01 T00041006  RH  093%=      5-min Rain = 0
KCL2 151117Z 28007KT 00/M01 A3015 RMK A01 T00041005  RH  094%=      5-min Rain = 0
KCL2 151118Z 28007KT 00/M01 A3015 RMK A01 T00041005  RH  094%=      5-min Rain = 0
KCL2 151119Z 28007KT 01/M01 A3015 RMK A01 T00051005  RH  094%=      5-min Rain = 0
KCL2 151120Z 28007KT 00/M01 A3015 RMK A01 T00041005  RH  093%=      5-min Rain = 0
KCL2 151121Z 28007KT 00/M01 A3015 RMK A01 T00041006  RH  093%=      5-min Rain = 0
KCL2 151122Z 28007KT 00/M01 A3015 RMK A01 T00031007  RH  093%=      5-min Rain = 0
KCL2 151123Z 28007KT 00/M01 A3015 RMK A01 T00021007  RH  094%=      5-min Rain = 0
KCL2 151124Z 28007KT 00/M01 A3015 RMK A01 T00021007  RH  094%=      5-min Rain = 0
KCL2 151125Z 28007KT 00/M01 A3015 RMK A01 T00021007  RH  094%=      5-min Rain = 0
KCL2 151126Z 28007KT 00/M01 A3015 RMK A01 T00021007  RH  094%=      5-min Rain = 0
KCL2 151127Z 28007KT 00/M01 A3015 RMK A01 T00011007  RH  094%=      5-min Rain = 0
KCL2 151128Z 28008KT 00/M01 A3015 RMK A01 T00011007  RH  094%=      5-min Rain = 0
KCL2 151129Z 28008KT 00/M01 A3015 RMK A01 T00011007  RH  094%=      5-min Rain = 0
KCL2 151130Z 28008KT 00/M01 A3015 RMK A01 T00021006  RH  094%=      5-min Rain = 0
KCL2 151131Z 28008KT 00/M01 A3015 RMK A01 T00021006  RH  094%=      5-min Rain = 0
KCL2 151132Z 28008KT 00/M01 A3015 RMK A01 T00031006  RH  094%=      5-min Rain = 0
KCL2 151133Z 28008KT 00/M01 A3015 RMK A01 T00021007  RH  094%=      5-min Rain = 0
KCL2 151134Z 28008KT 00/M01 A3015 RMK A01 T00021007  RH  094%=      5-min Rain = 0
KCL2 151135Z 28008KT 00/M01 A3015 RMK A01 T00021007  RH  094%=      5-min Rain = 0
KCL2 151136Z 28008KT 00/M01 A3015 RMK A01 T00021007  RH  094%=      5-min Rain = 0
KCL2 151137Z 28008KT 00/M01 A3015 RMK A01 T00031006  RH  094%=      5-min Rain = 0
KCL2 151138Z 28008KT 00/M01 A3015 RMK A01 T00031006  RH  094%=      5-min Rain = 0
KCL2 151139Z 28008KT 00/M01 A3015 RMK A01 T00031006  RH  094%=      5-min Rain = 0
KCL2 151140Z 28008KT 00/M01 A3015 RMK A01 T00031006  RH  094%=      5-min Rain = 0
KCL2 151141Z 28008KT 00/M01 A3015 RMK A01 T00031006  RH  094%=      5-min Rain = 0
KCL2 151142Z 29008KT 00/M01 A3015 RMK A01 T00031006  RH  094%=      5-min Rain = 0
KCL2 151143Z 29008KT 00/M01 A3015 RMK A01 T00031006  RH  094%=      5-min Rain = 0
KCL2 151144Z 28008KT 00/M01 A3015 RMK A01 T00031006  RH  094%=      5-min Rain = 0
KCL2 151145Z 28008KT 00/M01 A3015 RMK A01 T00021007  RH  094%=      5-min Rain = 0
KCL2 151146Z 29008KT 00/M01 A3015 RMK A01 T00021007  RH  094%=      5-min Rain = 0
KCL2 151147Z 29008KT 00/M01 A3015 RMK A01 T00021007  RH  094%=      5-min Rain = 0
KCL2 151148Z 29008KT 00/M01 A3015 RMK A01 T00021007  RH  094%=      5-min Rain = 0
KCL2 151149Z 29008KT 00/M01 A3015 RMK A01 T00021006  RH  094%=      5-min Rain = 0
KCL2 151150Z 29008KT 00/M01 A3015 RMK A01 T00031006  RH  094%=      5-min Rain = 0
KCL2 151151Z 29008KT 00/M01 A3015 RMK A01 T00041005  RH  094%=      5-min Rain = 0
KCL2 151152Z 29008KT 00/M00 A3015 RMK A01 T00041004  RH  094%=      5-min Rain = 0
KCL2 151153Z 29008KT 01/M00 A3015 RMK A01 T00051004  RH  094%=      5-min Rain = 0
KCL2 151154Z 29008KT 01/M00 A3015 RMK A01 T00051004  RH  093%=      5-min Rain = 0
KCL2 151155Z 29009KT 01/M01 A3015 RMK A01 T00051005  RH  093%=      5-min Rain = 0
KCL2 151156Z 29008KT 01/M00 A3015 RMK A01 T00061004  RH  093%=      5-min Rain = 0
KCL2 151157Z 29008KT 01/M00 A3015 RMK A01 T00061004  RH  093%=      5-min Rain = 0
KCL2 151158Z 29008KT 01/M00 A3015 RMK A01 T00061004  RH  093%=      5-min Rain = 0
KCL2 151159Z 29008KT 01/M00 A3015 RMK A01 T00071004  RH  093%=      5-min Rain = 0
KCL2 151200Z 29008KT 01/M00 A3015 RMK A01 T00071004  RH  093%=      5-min Rain = 0
KCL2 151201Z 29008KT 01/M00 A3015 RMK A01 T00071004  RH  093%=      5-min Rain = 0
KCL2 151202Z 29008KT 01/M00 A3015 RMK A01 T00071004  RH  092%=      5-min Rain = 0
KCL2 151203Z 29008KT 01/M00 A3015 RMK A01 T00071004  RH  092%=      5-min Rain = 0
KCL2 151204Z 29009KT 01/M01 A3015 RMK A01 T00071005  RH  092%=      5-min Rain = 0
KCL2 151205Z 29008KT 01/M00 A3015 RMK A01 T00071004  RH  092%=      5-min Rain = 0
KCL2 151206Z 29008KT 01/M01 A3015 RMK A01 T00071005  RH  092%=      5-min Rain = 0
KCL2 151207Z 29009KT 01/M01 A3015 RMK A01 T00071005  RH  092%=      5-min Rain = 0
KCL2 151208Z 29009KT 01/M01 A3015 RMK A01 T00061005  RH  092%=      5-min Rain = 0
KCL2 151209Z 29008KT 01/M01 A3015 RMK A01 T00061005  RH  092%=      5-min Rain = 0
KCL2 151210Z 29008KT 01/M01 A3015 RMK A01 T00061005  RH  092%=      5-min Rain = 0
KCL2 151211Z 29008KT 01/M01 A3015 RMK A01 T00061005  RH  092%=      5-min Rain = 0
KCL2 151212Z 29008KT 01/M01 A3015 RMK A01 T00061005  RH  092%=      5-min Rain = 0
KCL2 151213Z 29008KT 01/M01 A3015 RMK A01 T00061005  RH  092%=      5-min Rain = 0
KCL2 151214Z 29007KT 01/M01 A3015 RMK A01 T00061005  RH  092%=      5-min Rain = 0
KCL2 151215Z 29008KT 01/M01 A3015 RMK A01 T00051006  RH  092%=      5-min Rain = 0
KCL2 151216Z 29008KT 01/M01 A3016 RMK A01 T00051005  RH  093%=      5-min Rain = 0
KCL2 151217Z 29008KT 01/M01 A3016 RMK A01 T00051006  RH  093%=      5-min Rain = 0
KCL2 151218Z 29008KT 01/M01 A3016 RMK A01 T00051006  RH  093%=      5-min Rain = 0
KCL2 151219Z 29008KT 01/M01 A3016 RMK A01 T00051006  RH  093%=      5-min Rain = 0
KCL2 151220Z 28008KT 01/M01 A3016 RMK A01 T00051006  RH  093%=      5-min Rain = 0
KCL2 151221Z 28007KT 01/M01 A3016 RMK A01 T00051006  RH  093%=      5-min Rain = 0
KCL2 151222Z 28007KT 01/M01 A3016 RMK A01 T00051005  RH  093%=      5-min Rain = 0
KCL2 151223Z 28007KT 01/M01 A3016 RMK A01 T00051006  RH  093%=      5-min Rain = 0
KCL2 151224Z 28007KT 01/M01 A3016 RMK A01 T00051006  RH  093%=      5-min Rain = 0
KCL2 151225Z 28008KT 00/M01 A3016 RMK A01 T00041006  RH  093%=      5-min Rain = 0
KCL2 151226Z 28007KT 00/M01 A3016 RMK A01 T00041006  RH  093%=      5-min Rain = 0
KCL2 151227Z 28008KT 00/M01 A3016 RMK A01 T00041007  RH  093%=      5-min Rain = 0
KCL2 151228Z 28007KT 00/M01 A3016 RMK A01 T00031007  RH  093%=      5-min Rain = 0
KCL2 151229Z 28008KT 00/M01 A3016 RMK A01 T00031007  RH  093%=      5-min Rain = 0
KCL2 151230Z 28008KT 00/M01 A3016 RMK A01 T00031007  RH  093%=      5-min Rain = 0
KCL2 151231Z 29007KT 00/M01 A3016 RMK A01 T00031007  RH  093%=      5-min Rain = 0
KCL2 151232Z 28007KT 00/M01 A3016 RMK A01 T00021007  RH  093%=      5-min Rain = 0
KCL2 151233Z 28008KT 00/M01 A3016 RMK A01 T00021007  RH  093%=      5-min Rain = 0
KCL2 151234Z 28008KT 00/M01 A3016 RMK A01 T00021008  RH  093%=      5-min Rain = 0
KCL2 151235Z 28008KT 00/M01 A3016 RMK A01 T00011008  RH  094%=      5-min Rain = 0
KCL2 151236Z 28008KT 00/M01 A3016 RMK A01 T00021007  RH  094%=      5-min Rain = 0
KCL2 151237Z 28008KT 00/M01 A3016 RMK A01 T00021008  RH  094%=      5-min Rain = 0
KCL2 151238Z 28008KT 00/M01 A3016 RMK A01 T00011008  RH  094%=      5-min Rain = 0
KCL2 151239Z 28008KT 00/M01 A3016 RMK A01 T00011008  RH  094%=      5-min Rain = 0
KCL2 151240Z 28008KT 00/M01 A3016 RMK A01 T00011008  RH  094%=      5-min Rain = 0
KCL2 151241Z 28008KT 00/M01 A3016 RMK A01 T00011008  RH  094%=      5-min Rain = 0
KCL2 151242Z 28008KT 00/M01 A3016 RMK A01 T00011008  RH  094%=      5-min Rain = 0
KCL2 151243Z 28008KT 00/M01 A3016 RMK A01 T00011008  RH  094%=      5-min Rain = 0
KCL2 151244Z 28008KT 00/01 A3016 RMK A01 T000000-8  RH  094%=      5-min Rain = 0
KCL2 151245Z 29008KT 00/M01 A3016 RMK A01 T00011008  RH  094%=      5-min Rain = 0
KCL2 151246Z 28008KT 00/M01 A3016 RMK A01 T00011008  RH  094%=      5-min Rain = 0
KCL2 151247Z 28009KT 00/M01 A3016 RMK A01 T00011008  RH  094%=      5-min Rain = 0
KCL2 151248Z 29008KT 00/01 A3016 RMK A01 T000000-8  RH  094%=      5-min Rain = 0
KCL2 151249Z 29008KT 00/01 A3016 RMK A01 T00-000-9  RH  094%=      5-min Rain = 0
KCL2 151250Z 29008KT 00/01 A3016 RMK A01 T00-000-8  RH  094%=      5-min Rain = 0
KCL2 151251Z 28008KT 00/01 A3016 RMK A01 T00-000-8  RH  094%=      5-min Rain = 0
KCL2 151252Z 28008KT M00/M01 A3016 RMK A01 T10011009  RH  094%=      5-min Rain = 0
KCL2 151253Z 28008KT M00/M01 A3016 RMK A01 T10011009  RH  094%=      5-min Rain = 0
KCL2 151254Z 28008KT M00/M01 A3016 RMK A01 T10011009  RH  094%=      5-min Rain = 0
KCL2 151255Z 28008KT M00/M01 A3017 RMK A01 T10011009  RH  094%=      5-min Rain = 0
KCL2 151256Z 28007KT M00/M01 A3017 RMK A01 T10011009  RH  094%=      5-min Rain = 0
KCL2 151257Z 28007KT M00/M01 A3017 RMK A01 T10021010  RH  094%=      5-min Rain = 0
KCL2 151258Z 28008KT M00/M01 A3017 RMK A01 T10021010  RH  094%=      5-min Rain = 0
KCL2 151259Z 28007KT M00/M01 A3017 RMK A01 T10031011  RH  094%=      5-min Rain = 0
KCL2 151300Z 28008KT M00/M01 A3017 RMK A01 T10031011  RH  094%=      5-min Rain = 0
KCL2 151301Z 28007KT M00/M01 A3017 RMK A01 T10031011  RH  095%=      5-min Rain = 0
KCL2 151302Z 28007KT M00/M01 A3017 RMK A01 T10041012  RH  095%=      5-min Rain = 0
KCL2 151303Z 28007KT M00/M01 A3017 RMK A01 T10041012  RH  095%=      5-min Rain = 0
KCL2 151304Z 28007KT M01/M01 A3017 RMK A01 T10051012  RH  095%=      5-min Rain = 0
KCL2 151305Z 28007KT M01/M01 A3017 RMK A01 T10051013  RH  095%=      5-min Rain = 0
KCL2 151306Z 28007KT M01/M01 A3017 RMK A01 T10061013  RH  095%=      5-min Rain = 0
KCL2 151307Z 28007KT M01/M01 A3017 RMK A01 T10061013  RH  095%=      5-min Rain = 0
KCL2 151308Z 28007KT M01/M01 A3017 RMK A01 T10061013  RH  095%=      5-min Rain = 0
KCL2 151309Z 28007KT M01/M01 A3017 RMK A01 T10071014  RH  095%=      5-min Rain = 0
KCL2 151310Z 28007KT M01/M01 A3017 RMK A01 T10071014  RH  095%=      5-min Rain = 0
KCL2 151311Z 28007KT M01/M01 A3017 RMK A01 T10071013  RH  095%=      5-min Rain = 0
KCL2 151312Z 28007KT M01/M01 A3017 RMK A01 T10071013  RH  096%=      5-min Rain = 0
KCL2 151313Z 28007KT M01/M01 A3017 RMK A01 T10071013  RH  096%=      5-min Rain = 0
KCL2 151314Z 28007KT M01/M01 A3017 RMK A01 T10071013  RH  096%=      5-min Rain = 0
KCL2 151315Z 28007KT M01/M01 A3017 RMK A01 T10071013  RH  096%=      5-min Rain = 0
KCL2 151316Z 28007KT M01/M01 A3017 RMK A01 T10071013  RH  096%=      5-min Rain = 0
KCL2 151317Z 28007KT M01/M01 A3017 RMK A01 T10061013  RH  096%=      5-min Rain = 0
KCL2 151318Z 28007KT M01/M01 A3017 RMK A01 T10061013  RH  096%=      5-min Rain = 0
KCL2 151319Z 28007KT M01/M01 A3017 RMK A01 T10071013  RH  096%=      5-min Rain = 0
KCL2 151320Z 28007KT M01/M01 A3017 RMK A01 T10071013  RH  096%=      5-min Rain = 0
KCL2 151321Z 28008KT M01/M01 A3017 RMK A01 T10061013  RH  096%=      5-min Rain = 0
KCL2 151322Z 29008KT M01/M01 A3017 RMK A01 T10061012  RH  096%=      5-min Rain = 0
KCL2 151323Z 29009KT M01/M01 A3017 RMK A01 T10051011  RH  096%=      5-min Rain = 0
KCL2 151324Z 29008KT M00/M01 A3017 RMK A01 T10031009  RH  096%=      5-min Rain = 0
KCL2 151325Z 29008KT M00/M01 A3017 RMK A01 T10011007  RH  096%=      5-min Rain = 0
KCL2 151326Z 29009KT 00/01 A3017 RMK A01 T00-000-7  RH  095%=      5-min Rain = 0
KCL2 151327Z 29009KT 00/M01 A3017 RMK A01 T00011006  RH  095%=      5-min Rain = 0
KCL2 151328Z 29009KT 00/M01 A3017 RMK A01 T00021006  RH  094%=      5-min Rain = 0
KCL2 151329Z 29008KT 00/M01 A3018 RMK A01 T00031006  RH  094%=      5-min Rain = 0
KCL2 151330Z 29008KT 00/M01 A3018 RMK A01 T00021007  RH  094%=      5-min Rain = 0
KCL2 151331Z 29008KT 00/M01 A3018 RMK A01 T00031006  RH  093%=      5-min Rain = 0
KCL2 151332Z 29009KT 00/M01 A3018 RMK A01 T00031006  RH  093%=      5-min Rain = 0
KCL2 151333Z 29008KT 00/M01 A3018 RMK A01 T00041007  RH  093%=      5-min Rain = 0
KCL2 151334Z 29008KT 00/M01 A3018 RMK A01 T00041007  RH  093%=      5-min Rain = 0
KCL2 151335Z 29008KT 00/M01 A3018 RMK A01 T00041007  RH  093%=      5-min Rain = 0
KCL2 151336Z 29008KT 00/M01 A3018 RMK A01 T00041007  RH  093%=      5-min Rain = 0
KCL2 151337Z 30009KT 00/M01 A3018 RMK A01 T00041006  RH  092%=      5-min Rain = 0
KCL2 151338Z 30008KT 01/M01 A3018 RMK A01 T00051006  RH  092%=      5-min Rain = 0
KCL2 151339Z 30008KT 01/M01 A3018 RMK A01 T00051006  RH  092%=      5-min Rain = 0
KCL2 151340Z 30008KT 01/M01 A3018 RMK A01 T00051006  RH  092%=      5-min Rain = 0
KCL2 151341Z 30008KT 01/M01 A3018 RMK A01 T00061006  RH  092%=      5-min Rain = 0
KCL2 151342Z 30008KT 01/M01 A3018 RMK A01 T00071005  RH  092%=      5-min Rain = 0
KCL2 151343Z 30008KT 01/M00 A3018 RMK A01 T00071004  RH  092%=      5-min Rain = 0
KCL2 151344Z 30008KT 01/M00 A3018 RMK A01 T00081004  RH  092%=      5-min Rain = 0
KCL2 151345Z 30009KT 01/M00 A3018 RMK A01 T00081004  RH  092%=      5-min Rain = 0
KCL2 151346Z 30009KT 01/M00 A3018 RMK A01 T00091004  RH  091%=      5-min Rain = 0
KCL2 151347Z 30008KT 01/M00 A3018 RMK A01 T00101003  RH  091%=      5-min Rain = 0
KCL2 151348Z 30008KT 01/M00 A3018 RMK A01 T00101003  RH  091%=      5-min Rain = 0
KCL2 151349Z 30008KT 01/M00 A3018 RMK A01 T00101004  RH  091%=      5-min Rain = 0
KCL2 151350Z 30009KT 01/M00 A3018 RMK A01 T00101004  RH  091%=      5-min Rain = 0
KCL2 151351Z 30009KT 01/M00 A3019 RMK A01 T00101004  RH  091%=      5-min Rain = 0
KCL2 151352Z 30009KT 01/M00 A3019 RMK A01 T00101004  RH  091%=      5-min Rain = 0
KCL2 151353Z 30008KT 01/M00 A3019 RMK A01 T00111003  RH  091%=      5-min Rain = 0
KCL2 151354Z 30009KT 01/M00 A3019 RMK A01 T00111003  RH  091%=      5-min Rain = 0
KCL2 151355Z 30008KT 01/M00 A3019 RMK A01 T00111003  RH  091%=      5-min Rain = 0
KCL2 151356Z 30008KT 01/M00 A3019 RMK A01 T00101003  RH  091%=      5-min Rain = 0
KCL2 151357Z 31009KT 01/M00 A3019 RMK A01 T00111003  RH  091%=      5-min Rain = 0
KCL2 151358Z 30008KT 01/M00 A3019 RMK A01 T00111003  RH  091%=      5-min Rain = 0
KCL2 151359Z 30007KT 01/M00 A3019 RMK A01 T00111003  RH  090%=      5-min Rain = 0
KCL2 151400Z 31009KT 01/M00 A3019 RMK A01 T00121002  RH  091%=      5-min Rain = 0
KCL2 151401Z 31008KT 01/M00 A3019 RMK A01 T00121002  RH  090%=      5-min Rain = 0
KCL2 151402Z 31007KT 01/M00 A3019 RMK A01 T00121002  RH  090%=      5-min Rain = 0
KCL2 151403Z 31008KT 01/M00 A3019 RMK A01 T00131002  RH  090%=      5-min Rain = 0
KCL2 151404Z 31008KT 01/M00 A302 RMK A01 T00131002  RH  090%=      5-min Rain = 0
KCL2 151405Z 31007KT 01/M00 A302 RMK A01 T00141001  RH  090%=      5-min Rain = 0
KCL2 151406Z 30006KT 01/M00 A302 RMK A01 T00141001  RH  090%=      5-min Rain = 0
KCL2 151407Z 30007KT 01/M00 A302 RMK A01 T00141001  RH  090%=      5-min Rain = 0
KCL2 151408Z 31008KT 02/M00 A302 RMK A01 T00151001  RH  089%=      5-min Rain = 0
KCL2 151409Z 30007KT 02/M00 A302 RMK A01 T00151001  RH  089%=      5-min Rain = 0
KCL2 151410Z 30007KT 02/M00 A302 RMK A01 T00161001  RH  089%=      5-min Rain = 0
KCL2 151411Z 31007KT 02/00 A302 RMK A01 T001600-0  RH  089%=      5-min Rain = 0
KCL2 151412Z 31008KT 02/00 A302 RMK A01 T001600-0  RH  089%=      5-min Rain = 0
KCL2 151413Z 31007KT 02/00 A302 RMK A01 T001700-0  RH  089%=      5-min Rain = 0
KCL2 151414Z 30007KT 02/00 A302 RMK A01 T00170000  RH  089%=      5-min Rain = 0
KCL2 151415Z 31009KT 02/00 A302 RMK A01 T00170001  RH  089%=      5-min Rain = 0
KCL2 151416Z 31007KT 02/00 A3021 RMK A01 T001800-0  RH  088%=      5-min Rain = 0
KCL2 151417Z 31007KT 02/00 A3021 RMK A01 T00180001  RH  088%=      5-min Rain = 0
KCL2 151418Z 31006KT 02/00 A3021 RMK A01 T00190002  RH  089%=      5-min Rain = 0
KCL2 151419Z 31008KT 02/00 A3021 RMK A01 T00190002  RH  089%=      5-min Rain = 0
KCL2 151420Z 30007KT 02/00 A3021 RMK A01 T00190002  RH  088%=      5-min Rain = 0
KCL2 151421Z 31008KT 02/00 A3021 RMK A01 T00200002  RH  088%=      5-min Rain = 0
KCL2 151422Z 31007KT 02/00 A3021 RMK A01 T00210003  RH  088%=      5-min Rain = 0
KCL2 151423Z 31007KT 02/00 A3021 RMK A01 T00210004  RH  088%=      5-min Rain = 0
KCL2 151424Z 31007KT 02/00 A3021 RMK A01 T00210003  RH  088%=      5-min Rain = 0
KCL2 151425Z 31007KT 02/00 A3021 RMK A01 T00220003  RH  088%=      5-min Rain = 0
KCL2 151426Z 32006KT 02/00 A3021 RMK A01 T00220002  RH  087%=      5-min Rain = 0
KCL2 151427Z 32005KT 02/00 A3022 RMK A01 T00220003  RH  087%=      5-min Rain = 0
KCL2 151428Z 32005KT 02/00 A3022 RMK A01 T00220003  RH  087%=      5-min Rain = 0
KCL2 151429Z 32006KT 02/00 A3022 RMK A01 T00230004  RH  088%=      5-min Rain = 0
KCL2 151430Z 31006KT 02/01 A3022 RMK A01 T00240006  RH  088%=      5-min Rain = 0
KCL2 151431Z 31008KT 02/01 A3022 RMK A01 T00240006  RH  088%=      5-min Rain = 0
KCL2 151432Z 31007KT 02/01 A3022 RMK A01 T00240005  RH  087%=      5-min Rain = 0
KCL2 151433Z 31006KT 03/01 A3022 RMK A01 T00250006  RH  088%=      5-min Rain = 0
KCL2 151434Z 32007KT 03/01 A3022 RMK A01 T00250007  RH  088%=      5-min Rain = 0
KCL2 151435Z 31007KT 03/01 A3022 RMK A01 T00260007  RH  087%=      5-min Rain = 0
KCL2 151436Z 31007KT 03/01 A3022 RMK A01 T00260007  RH  087%=      5-min Rain = 0
KCL2 151437Z 31007KT 03/01 A3022 RMK A01 T00260005  RH  086%=      5-min Rain = 0
KCL2 151438Z 31006KT 03/01 A3022 RMK A01 T00270008  RH  088%=      5-min Rain = 0
KCL2 151439Z 31008KT 03/01 A3022 RMK A01 T00280009  RH  087%=      5-min Rain = 0
KCL2 151440Z 31006KT 03/01 A3022 RMK A01 T00280008  RH  087%=      5-min Rain = 0
KCL2 151441Z 31007KT 03/01 A3022 RMK A01 T00290010  RH  087%=      5-min Rain = 0
KCL2 151442Z 32006KT 03/01 A3022 RMK A01 T00300010  RH  087%=      5-min Rain = 0
KCL2 151443Z 32010KT 03/01 A3022 RMK A01 T00300010  RH  087%=      5-min Rain = 0
KCL2 151444Z 31007KT 03/01 A3022 RMK A01 T00300008  RH  086%=      5-min Rain = 0
KCL2 151445Z 32006KT 03/01 A3022 RMK A01 T00300010  RH  086%=      5-min Rain = 0
KCL2 151446Z 32008KT 03/01 A3022 RMK A01 T00310011  RH  087%=      5-min Rain = 0
KCL2 151447Z 32009KT 03/01 A3022 RMK A01 T00310009  RH  085%=      5-min Rain = 0
KCL2 151448Z 32008KT 03/01 A3022 RMK A01 T00310007  RH  085%=      5-min Rain = 0
KCL2 151449Z 33007KT 03/01 A3022 RMK A01 T00310009  RH  086%=      5-min Rain = 0
KCL2 151450Z 32007KT 03/01 A3022 RMK A01 T00320010  RH  086%=      5-min Rain = 0
KCL2 151451Z 32007KT 03/01 A3022 RMK A01 T00330011  RH  086%=      5-min Rain = 0
KCL2 151452Z 32009KT 03/01 A3022 RMK A01 T00330011  RH  086%=      5-min Rain = 0
KCL2 151453Z 33009KT 03/01 A3022 RMK A01 T00330008  RH  084%=      5-min Rain = 0
KCL2 151454Z 33009KT 03/01 A3022 RMK A01 T00330007  RH  083%=      5-min Rain = 0
KCL2 151455Z 33009KT 03/01 A3023 RMK A01 T00330008  RH  084%=      5-min Rain = 0
KCL2 151456Z 32009KT 03/01 A3023 RMK A01 T00330008  RH  084%=      5-min Rain = 0
KCL2 151457Z 32008KT 03/01 A3023 RMK A01 T00330009  RH  084%=      5-min Rain = 0
KCL2 151458Z 32009KT 03/01 A3023 RMK A01 T00340011  RH  085%=      5-min Rain = 0
KCL2 151459Z 33009KT 04/01 A3023 RMK A01 T00350011  RH  084%=      5-min Rain = 0
KCL2 151500Z 33010KT 04/01 A3023 RMK A01 T00350011  RH  084%=      5-min Rain = 0
KCL2 151501Z 31007KT 04/01 A3023 RMK A01 T00360010  RH  083%=      5-min Rain = 0
KCL2 151502Z 32008KT 04/01 A3023 RMK A01 T00370011  RH  084%=      5-min Rain = 0
KCL2 151503Z 32009KT 04/01 A3023 RMK A01 T00370011  RH  083%=      5-min Rain = 0
KCL2 151504Z 32009KT 04/01 A3023 RMK A01 T00380011  RH  083%=      5-min Rain = 0
KCL2 151505Z 32009KT 04/01 A3023 RMK A01 T00380008  RH  081%=      5-min Rain = 0
KCL2 151506Z 32010KT 04/01 A3023 RMK A01 T00380006  RH  080%=      5-min Rain = 0
KCL2 151507Z 32008KT 04/01 A3023 RMK A01 T00380008  RH  081%=      5-min Rain = 0
KCL2 151508Z 32007KT 04/01 A3023 RMK A01 T00390012  RH  083%=      5-min Rain = 0
KCL2 151509Z 33008KT 04/01 A3023 RMK A01 T00400011  RH  082%=      5-min Rain = 0
KCL2 151510Z 33009KT 04/01 A3023 RMK A01 T00410010  RH  080%=      5-min Rain = 0
KCL2 151511Z 34009KT 04/01 A3024 RMK A01 T00410010  RH  081%=      5-min Rain = 0
KCL2 151512Z 32009KT 04/01 A3024 RMK A01 T00410010  RH  080%=      5-min Rain = 0
KCL2 151513Z 33010KT 04/01 A3024 RMK A01 T00410007  RH  079%=      5-min Rain = 0
KCL2 151514Z 33009KT 04/01 A3024 RMK A01 T00410006  RH  078%=      5-min Rain = 0
KCL2 151515Z 32010KT 04/01 A3024 RMK A01 T00400005  RH  078%=      5-min Rain = 0
KCL2 151516Z 33009KT 04/01 A3024 RMK A01 T00400006  RH  078%=      5-min Rain = 0
KCL2 151517Z 34009KT 04/01 A3024 RMK A01 T00410007  RH  079%=      5-min Rain = 0
KCL2 151518Z 34009KT 04/01 A3024 RMK A01 T00420008  RH  078%=      5-min Rain = 0
KCL2 151519Z 34009KT 04/01 A3024 RMK A01 T00420006  RH  077%=      5-min Rain = 0
KCL2 151520Z 33010KT 04/01 A3024 RMK A01 T00420008  RH  078%=      5-min Rain = 0
KCL2 151521Z 33009KT 04/01 A3024 RMK A01 T00420008  RH  078%=      5-min Rain = 0
KCL2 151522Z 34009KT 04/01 A3024 RMK A01 T00430009  RH  079%=      5-min Rain = 0
KCL2 151523Z 35008KT 04/01 A3024 RMK A01 T00430007  RH  078%=      5-min Rain = 0
KCL2 151524Z 34008KT 04/01 A3024 RMK A01 T00430009  RH  078%=      5-min Rain = 0
KCL2 151525Z 34011KT 04/01 A3024 RMK A01 T00430008  RH  078%=      5-min Rain = 0
KCL2 151526Z 33009KT 04/01 A3024 RMK A01 T00430006  RH  077%=      5-min Rain = 0
KCL2 151527Z 34007KT 04/01 A3024 RMK A01 T00440009  RH  078%=      5-min Rain = 0
KCL2 151528Z 34009KT 05/01 A3024 RMK A01 T00450010  RH  078%=      5-min Rain = 0
KCL2 151529Z 35007KT 05/01 A3024 RMK A01 T00460009  RH  077%=      5-min Rain = 0
KCL2 151530Z 34009KT 05/01 A3025 RMK A01 T00460008  RH  076%=      5-min Rain = 0
KCL2 151531Z 34007KT 05/01 A3024 RMK A01 T00460005  RH  075%=      5-min Rain = 0
KCL2 151532Z 33007KT 05/01 A3024 RMK A01 T00460008  RH  076%=      5-min Rain = 0
KCL2 151533Z 34008KT 05/01 A3025 RMK A01 T00470009  RH  076%=      5-min Rain = 0
KCL2 151534Z 34008KT 05/01 A3025 RMK A01 T00480008  RH  075%=      5-min Rain = 0
KCL2 151535Z 34010KT 05/01 A3025 RMK A01 T00480007  RH  075%=      5-min Rain = 0
KCL2 151536Z 35007KT 05/01 A3025 RMK A01 T00460005  RH  074%=      5-min Rain = 0
KCL2 151537Z 34008KT 05/00 A3025 RMK A01 T00460004  RH  075%=      5-min Rain = 0
KCL2 151538Z 34008KT 05/01 A3025 RMK A01 T00480009  RH  076%=      5-min Rain = 0
KCL2 151539Z 34008KT 05/00 A3025 RMK A01 T00490004  RH  073%=      5-min Rain = 0
KCL2 151540Z 35007KT 05/01 A3025 RMK A01 T00490005  RH  073%=      5-min Rain = 0
KCL2 151541Z 35007KT 05/00 A3025 RMK A01 T00490004  RH  073%=      5-min Rain = 0
KCL2 151542Z 35007KT 05/01 A3025 RMK A01 T00490007  RH  074%=      5-min Rain = 0
KCL2 151543Z 35006KT 05/01 A3025 RMK A01 T00500008  RH  074%=      5-min Rain = 0
KCL2 151544Z 35006KT 05/01 A3025 RMK A01 T00510005  RH  072%=      5-min Rain = 0
KCL2 151545Z 35007KT 05/01 A3025 RMK A01 T00510006  RH  073%=      5-min Rain = 0
KCL2 151546Z 35007KT 05/01 A3025 RMK A01 T00510006  RH  072%=      5-min Rain = 0
KCL2 151547Z 35008KT 05/01 A3025 RMK A01 T00520008  RH  073%=      5-min Rain = 0
KCL2 151548Z 35008KT 05/01 A3025 RMK A01 T00530007  RH  072%=      5-min Rain = 0
KCL2 151549Z 35006KT 05/00 A3025 RMK A01 T00530002  RH  069%=      5-min Rain = 0
KCL2 151550Z 36006KT 05/01 A3025 RMK A01 T00530006  RH  072%=      5-min Rain = 0
KCL2 151551Z 33005KT 06/01 A3025 RMK A01 T00550010  RH  073%=      5-min Rain = 0
KCL2 151552Z 33007KT 06/01 A3025 RMK A01 T00570010  RH  072%=      5-min Rain = 0
KCL2 151553Z 36009KT 06/01 A3025 RMK A01 T00570008  RH  071%=      5-min Rain = 0
KCL2 151554Z 36008KT 06/01 A3025 RMK A01 T00570008  RH  071%=      5-min Rain = 0
KCL2 151555Z 00005KT 06/01 A3025 RMK A01 T00550006  RH  070%=      5-min Rain = 0
KCL2 151556Z 02006KT 06/01 A3025 RMK A01 T00560010  RH  072%=      5-min Rain = 0
KCL2 151557Z 36007KT 06/01 A3025 RMK A01 T00560009  RH  072%=      5-min Rain = 0
KCL2 151558Z 35007KT 06/01 A3025 RMK A01 T00560006  RH  070%=      5-min Rain = 0
KCL2 151559Z 36006KT 06/00 A3025 RMK A01 T00550004  RH  070%=      5-min Rain = 0
KCL2 151600Z 00005KT 06/00 A3025 RMK A01 T00550004  RH  070%=      5-min Rain = 0
KCL2 151601Z 36004KT 06/01 A3025 RMK A01 T00550005  RH  070%=      5-min Rain = 0
KCL2 151602Z 34006KT 06/01 A3025 RMK A01 T00570010  RH  072%=      5-min Rain = 0
KCL2 151603Z 35008KT 06/01 A3025 RMK A01 T00590010  RH  071%=      5-min Rain = 0
KCL2 151604Z 35007KT 06/01 A3025 RMK A01 T00580008  RH  070%=      5-min Rain = 0
KCL2 151605Z 34008KT 06/01 A3025 RMK A01 T00590010  RH  071%=      5-min Rain = 0
KCL2 151606Z 35007KT 06/01 A3025 RMK A01 T00600006  RH  069%=      5-min Rain = 0
KCL2 151607Z 34008KT 06/01 A3025 RMK A01 T00600009  RH  070%=      5-min Rain = 0
KCL2 151608Z 34008KT 06/01 A3025 RMK A01 T00610010  RH  070%=      5-min Rain = 0
KCL2 151609Z 35005KT 06/01 A3025 RMK A01 T00600006  RH  068%=      5-min Rain = 0
KCL2 151610Z 34005KT 06/01 A3025 RMK A01 T00600008  RH  069%=      5-min Rain = 0
KCL2 151611Z 35007KT 06/01 A3025 RMK A01 T00600006  RH  068%=      5-min Rain = 0
KCL2 151612Z 00006KT 06/01 A3025 RMK A01 T00600007  RH  069%=      5-min Rain = 0
KCL2 151613Z 01005KT 06/01 A3025 RMK A01 T00610010  RH  070%=      5-min Rain = 0
KCL2 151614Z 36006KT 06/01 A3025 RMK A01 T00630007  RH  068%=      5-min Rain = 0
KCL2 151615Z 36007KT 06/01 A3025 RMK A01 T00620005  RH  067%=      5-min Rain = 0
KCL2 151616Z 36006KT 06/01 A3025 RMK A01 T00610005  RH  067%=      5-min Rain = 0
KCL2 151617Z 35006KT 06/01 A3025 RMK A01 T00630010  RH  069%=      5-min Rain = 0
KCL2 151618Z 36006KT 07/01 A3025 RMK A01 T00670013  RH  069%=      5-min Rain = 0
KCL2 151619Z 36006KT 07/01 A3025 RMK A01 T00690011  RH  067%=      5-min Rain = 0
KCL2 151620Z 36008KT 07/01 A3025 RMK A01 T00690008  RH  065%=      5-min Rain = 0
KCL2 151621Z 02006KT 07/01 A3025 RMK A01 T00690007  RH  064%=      5-min Rain = 0
KCL2 151622Z 02006KT 07/01 A3025 RMK A01 T00690007  RH  064%=      5-min Rain = 0
KCL2 151623Z 01006KT 07/01 A3025 RMK A01 T00680008  RH  065%=      5-min Rain = 0
KCL2 151624Z 01005KT 07/01 A3025 RMK A01 T00690009  RH  066%=      5-min Rain = 0
KCL2 151625Z 34007KT 07/01 A3025 RMK A01 T00690010  RH  066%=      5-min Rain = 0
KCL2 151626Z 34008KT 07/01 A3025 RMK A01 T00700008  RH  064%=      5-min Rain = 0
KCL2 151627Z 35009KT 07/01 A3025 RMK A01 T00700008  RH  065%=      5-min Rain = 0
KCL2 151628Z 00007KT 07/01 A3025 RMK A01 T00700007  RH  064%=      5-min Rain = 0
KCL2 151629Z 36008KT 07/01 A3025 RMK A01 T00700008  RH  065%=      5-min Rain = 0
KCL2 151630Z 01007KT 07/00 A3025 RMK A01 T00690003  RH  063%=      5-min Rain = 0
KCL2 151631Z 01006KT 07/01 A3025 RMK A01 T00670006  RH  065%=      5-min Rain = 0
KCL2 151632Z 01006KT 07/01 A3025 RMK A01 T00680006  RH  065%=      5-min Rain = 0
KCL2 151633Z 00009KT 07/01 A3025 RMK A01 T00690007  RH  065%=      5-min Rain = 0
KCL2 151634Z 36009KT 07/01 A3025 RMK A01 T00700006  RH  064%=      5-min Rain = 0
KCL2 151635Z 00009KT 07/00 A3025 RMK A01 T00710003  RH  062%=      5-min Rain = 0
KCL2 151636Z 02007KT 07/01 A3025 RMK A01 T00710007  RH  063%=      5-min Rain = 0
KCL2 151637Z 35005KT 08/02 A3025 RMK A01 T00750016  RH  066%=      5-min Rain = 0
KCL2 151638Z 00009KT 08/02 A3025 RMK A01 T00780016  RH  065%=      5-min Rain = 0
KCL2 151639Z 35007KT 08/01 A3025 RMK A01 T00780010  RH  062%=      5-min Rain = 0
KCL2 151640Z 35008KT 08/01 A3025 RMK A01 T00760007  RH  062%=      5-min Rain = 0
KCL2 151641Z 35010KT 08/01 A3025 RMK A01 T00760008  RH  062%=      5-min Rain = 0
KCL2 151642Z 35008KT 08/01 A3025 RMK A01 T00770005  RH  060%=      5-min Rain = 0
KCL2 151643Z 35008KT 08/01 A3025 RMK A01 T00770010  RH  062%=      5-min Rain = 0
KCL2 151644Z 00009KT 08/01 A3026 RMK A01 T00800010  RH  062%=      5-min Rain = 0
KCL2 151645Z 34007KT 08/01 A3026 RMK A01 T00790009  RH  061%=      5-min Rain = 0
KCL2 151646Z 34008KT 08/01 A3026 RMK A01 T00800007  RH  060%=      5-min Rain = 0
KCL2 151647Z 34008KT 08/01 A3026 RMK A01 T00790007  RH  060%=      5-min Rain = 0
KCL2 151648Z 34007KT 08/01 A3026 RMK A01 T00790009  RH  061%=      5-min Rain = 0
KCL2 151649Z 32008KT 08/01 A3026 RMK A01 T00770009  RH  062%=      5-min Rain = 0
KCL2 151650Z 32007KT 08/01 A3026 RMK A01 T00770012  RH  063%=      5-min Rain = 0
KCL2 151651Z 34009KT 08/01 A3026 RMK A01 T00800013  RH  063%=      5-min Rain = 0
KCL2 151652Z 33009KT 08/01 A3025 RMK A01 T00810008  RH  060%=      5-min Rain = 0
KCL2 151653Z 35009KT 08/01 A3026 RMK A01 T00800008  RH  060%=      5-min Rain = 0
KCL2 151654Z 01008KT 08/01 A3026 RMK A01 T00790006  RH  060%=      5-min Rain = 0
KCL2 151655Z 02009KT 08/01 A3026 RMK A01 T00780006  RH  060%=      5-min Rain = 0
KCL2 151656Z 00008KT 08/01 A3026 RMK A01 T00780007  RH  061%=      5-min Rain = 0
KCL2 151657Z 00006KT 08/00 A3026 RMK A01 T00790004  RH  059%=      5-min Rain = 0
KCL2 151658Z 02007KT 08/01 A3026 RMK A01 T00790008  RH  061%=      5-min Rain = 0
KCL2 151659Z 35006KT 08/01 A3026 RMK A01 T00800012  RH  062%=      5-min Rain = 0
KCL2 151700Z 34009KT 08/01 A3026 RMK A01 T00830012  RH  061%=      5-min Rain = 0
KCL2 151701Z 35010KT 09/01 A3026 RMK A01 T00850012  RH  060%=      5-min Rain = 0
KCL2 151702Z 35008KT 09/01 A3026 RMK A01 T00860007  RH  057%=      5-min Rain = 0
KCL2 151703Z 36007KT 08/01 A3026 RMK A01 T00840006  RH  058%=      5-min Rain = 0
KCL2 151704Z 36007KT 08/01 A3026 RMK A01 T00830009  RH  060%=      5-min Rain = 0
KCL2 151705Z 32006KT 08/01 A3026 RMK A01 T00820012  RH  061%=      5-min Rain = 0
KCL2 151706Z 34009KT 08/01 A3026 RMK A01 T00840010  RH  060%=      5-min Rain = 0
KCL2 151707Z 33010KT 09/01 A3026 RMK A01 T00850007  RH  058%=      5-min Rain = 0
KCL2 151708Z 32009KT 09/00 A3026 RMK A01 T00850004  RH  057%=      5-min Rain = 0
KCL2 151709Z 35008KT 09/01 A3026 RMK A01 T00850007  RH  058%=      5-min Rain = 0
KCL2 151710Z 00009KT 09/01 A3026 RMK A01 T00860006  RH  057%=      5-min Rain = 0
KCL2 151711Z 01009KT 09/01 A3026 RMK A01 T00860005  RH  057%=      5-min Rain = 0
KCL2 151712Z 01008KT 08/00 A3026 RMK A01 T00840003  RH  057%=      5-min Rain = 0
KCL2 151713Z 00008KT 08/01 A3026 RMK A01 T00840005  RH  058%=      5-min Rain = 0
KCL2 151714Z 33010KT 09/01 A3026 RMK A01 T00850008  RH  059%=      5-min Rain = 0
KCL2 151715Z 33009KT 09/01 A3026 RMK A01 T00880007  RH  057%=      5-min Rain = 0
KCL2 151716Z 34007KT 09/00 A3026 RMK A01 T00890004  RH  055%=      5-min Rain = 0
KCL2 151717Z 36007KT 09/01 A3026 RMK A01 T00890006  RH  056%=      5-min Rain = 0
KCL2 151718Z 35007KT 09/01 A3026 RMK A01 T00900007  RH  056%=      5-min Rain = 0
KCL2 151719Z 01006KT 09/01 A3026 RMK A01 T00890006  RH  056%=      5-min Rain = 0
KCL2 151720Z 35010KT 09/01 A3026 RMK A01 T00910009  RH  057%=      5-min Rain = 0
KCL2 151721Z 35012KT 09/01 A3026 RMK A01 T00910005  RH  055%=      5-min Rain = 0
KCL2 151722Z 34010KT 09/00 A3026 RMK A01 T00900004  RH  055%=      5-min Rain = 0
KCL2 151723Z 35010KT 09/00 A3026 RMK A01 T00910003  RH  054%=      5-min Rain = 0
KCL2 151724Z 00007KT 09/00 A3026 RMK A01 T008900-0  RH  053%=      5-min Rain = 0
KCL2 151725Z 36008KT 09/01 A3025 RMK A01 T00890005  RH  056%=      5-min Rain = 0
KCL2 151726Z 36010KT 09/01 A3026 RMK A01 T00920009  RH  056%=      5-min Rain = 0
KCL2 151727Z 35010KT 09/00 A3026 RMK A01 T00930003  RH  053%=      5-min Rain = 0
KCL2 151728Z 00007KT 09/00 A3025 RMK A01 T009100-0  RH  053%=      5-min Rain = 0
KCL2 151729Z 36009KT 09/01 A3025 RMK A01 T00900005  RH  055%=      5-min Rain = 0
KCL2 151730Z 34008KT 09/01 A3025 RMK A01 T00900009  RH  057%=      5-min Rain = 0
KCL2 151731Z 33009KT 09/01 A3025 RMK A01 T00920012  RH  057%=      5-min Rain = 0
KCL2 151732Z 32006KT 09/01 A3025 RMK A01 T00930008  RH  055%=      5-min Rain = 0
KCL2 151733Z 33008G13KT 09/01 A3025 RMK A01 T00930010  RH  056%=      5-min Rain = 0
KCL2 151734Z 34010KT 10/01 A3025 RMK A01 T00960010  RH  055%=      5-min Rain = 0
KCL2 151735Z 36008KT 10/01 A3025 RMK A01 T00950005  RH  053%=      5-min Rain = 0
KCL2 151736Z 35009KT 09/00 A3025 RMK A01 T00910001  RH  053%=      5-min Rain = 0
KCL2 151737Z 35006KT 09/01 A3025 RMK A01 T00910006  RH  055%=      5-min Rain = 0
KCL2 151738Z 36007KT 09/01 A3025 RMK A01 T00940009  RH  055%=      5-min Rain = 0
KCL2 151739Z 33006KT 09/00 A3025 RMK A01 T00940003  RH  053%=      5-min Rain = 0
KCL2 151740Z 34008KT 09/01 A3025 RMK A01 T00940010  RH  056%=      5-min Rain = 0
KCL2 151741Z 35009KT 10/01 A3025 RMK A01 T00960011  RH  055%=      5-min Rain = 0
KCL2 151742Z 34011KT 10/01 A3025 RMK A01 T00980010  RH  054%=      5-min Rain = 0
KCL2 151743Z 35009KT 10/01 A3025 RMK A01 T00980008  RH  054%=      5-min Rain = 0
KCL2 151744Z 33007KT 10/01 A3025 RMK A01 T00970010  RH  054%=      5-min Rain = 0
KCL2 151745Z 32007KT 10/01 A3025 RMK A01 T00990011  RH  054%=      5-min Rain = 0
KCL2 151746Z 33009KT 10/01 A3025 RMK A01 T01000008  RH  053%=      5-min Rain = 0
KCL2 151747Z 33008KT 10/00 A3025 RMK A01 T01000003  RH  051%=      5-min Rain = 0
KCL2 151748Z 32010KT 10/01 A3025 RMK A01 T00990005  RH  052%=      5-min Rain = 0
KCL2 151749Z 33010KT 10/01 A3025 RMK A01 T01000011  RH  054%=      5-min Rain = 0
KCL2 151750Z 33009KT 10/01 A3025 RMK A01 T00990006  RH  052%=      5-min Rain = 0
KCL2 151751Z 34008KT 10/01 A3025 RMK A01 T00970008  RH  054%=      5-min Rain = 0
KCL2 151752Z 33007KT 10/01 A3025 RMK A01 T00980012  RH  055%=      5-min Rain = 0
KCL2 151753Z 33009KT 10/01 A3025 RMK A01 T01000010  RH  053%=      5-min Rain = 0
KCL2 151754Z 34007KT 10/01 A3025 RMK A01 T00980005  RH  052%=      5-min Rain = 0
KCL2 151755Z 35010KT 10/01 A3025 RMK A01 T00980005  RH  052%=      5-min Rain = 0
KCL2 151756Z 34008KT 10/01 A3025 RMK A01 T00960005  RH  053%=      5-min Rain = 0
KCL2 151757Z 33008KT 10/01 A3025 RMK A01 T00980012  RH  055%=      5-min Rain = 0
KCL2 151758Z 33012KT 10/01 A3025 RMK A01 T01030009  RH  052%=      5-min Rain = 0
KCL2 151759Z 31010KT 10/01 A3025 RMK A01 T01020006  RH  051%=      5-min Rain = 0
KCL2 151800Z 32009KT 10/00 A3025 RMK A01 T00990002  RH  051%=      5-min Rain = 0
KCL2 151801Z 34010KT 10/01 A3025 RMK A01 T01010008  RH  053%=      5-min Rain = 0
KCL2 151802Z 34007KT 10/00 A3025 RMK A01 T01000003  RH  051%=      5-min Rain = 0
KCL2 151803Z 31010KT 10/01 A3025 RMK A01 T01000008  RH  052%=      5-min Rain = 0
KCL2 151804Z 31009KT 10/01 A3025 RMK A01 T01010006  RH  052%=      5-min Rain = 0
KCL2 151805Z 31010KT 10/01 A3025 RMK A01 T01020006  RH  051%=      5-min Rain = 0
KCL2 151806Z 31009KT 10/00 A3025 RMK A01 T00990000  RH  050%=      5-min Rain = 0
KCL2 151807Z 31011KT 10/00 A3025 RMK A01 T00980003  RH  052%=      5-min Rain = 0
KCL2 151808Z 34011KT 10/01 A3025 RMK A01 T01000008  RH  053%=      5-min Rain = 0
KCL2 151809Z 34010KT 10/00 A3025 RMK A01 T01010002  RH  050%=      5-min Rain = 0
KCL2 151810Z 34007KT 10/00 A3025 RMK A01 T00990003  RH  051%=      5-min Rain = 0
KCL2 151811Z 33011KT 10/01 A3025 RMK A01 T01000005  RH  052%=      5-min Rain = 0
KCL2 151812Z 32013KT 10/00 A3024 RMK A01 T01020004  RH  051%=      5-min Rain = 0
KCL2 151813Z 33011KT 10/00 A3025 RMK A01 T01030002  RH  050%=      5-min Rain = 0
KCL2 151814Z 33008KT 10/00 A3024 RMK A01 T01030004  RH  050%=      5-min Rain = 0
KCL2 151815Z 34008G15KT 10/00 A3024 RMK A01 T01040003  RH  050%=      5-min Rain = 0
KCL2 151816Z 33014KT 10/00 A3024 RMK A01 T01040004  RH  050%=      5-min Rain = 0
KCL2 151817Z 32012KT 10/00 A3024 RMK A01 T01040003  RH  050%=      5-min Rain = 0
KCL2 151818Z 33012KT 11/00 A3024 RMK A01 T01050003  RH  049%=      5-min Rain = 0
KCL2 151819Z 33013KT 10/M00 A3024 RMK A01 T01041003  RH  047%=      5-min Rain = 0
KCL2 151820Z 34013KT 10/M00 A3025 RMK A01 T01031002  RH  048%=      5-min Rain = 0
KCL2 151821Z 34010KT 10/M00 A3025 RMK A01 T01031001  RH  048%=      5-min Rain = 0
KCL2 151822Z 34008KT 10/00 A3024 RMK A01 T01020001  RH  049%=      5-min Rain = 0
KCL2 151823Z 33010KT 10/00 A3024 RMK A01 T01020003  RH  050%=      5-min Rain = 0
KCL2 151824Z 34009KT 11/01 A3024 RMK A01 T01050005  RH  050%=      5-min Rain = 0
KCL2 151825Z 34007KT 11/00 A3024 RMK A01 T01060004  RH  049%=      5-min Rain = 0
KCL2 151826Z 34007KT 11/00 A3024 RMK A01 T01060003  RH  049%=      5-min Rain = 0
KCL2 151827Z 34012KT 11/00 A3024 RMK A01 T01060004  RH  049%=      5-min Rain = 0
KCL2 151828Z 34012KT 11/00 A3024 RMK A01 T01070001  RH  048%=      5-min Rain = 0
KCL2 151829Z 35010KT 11/M00 A3024 RMK A01 T01051003  RH  047%=      5-min Rain = 0
KCL2 151830Z 34007KT 10/M01 A3024 RMK A01 T01021009  RH  046%=      5-min Rain = 0
KCL2 151831Z 35007KT 10/M01 A3024 RMK A01 T01001006  RH  048%=      5-min Rain = 0
KCL2 151832Z 32010KT 10/M00 A3024 RMK A01 T01011001  RH  049%=      5-min Rain = 0
KCL2 151833Z 32012KT 10/00 A3024 RMK A01 T01040002  RH  049%=      5-min Rain = 0
KCL2 151834Z 32010KT 11/00 A3024 RMK A01 T01070004  RH  049%=      5-min Rain = 0
KCL2 151835Z 33009KT 11/M00 A3024 RMK A01 T01081002  RH  047%=      5-min Rain = 0
KCL2 151836Z 32009G15KT 11/00 A3024 RMK A01 T01060002  RH  048%=      5-min Rain = 0
KCL2 151837Z 34013G19KT 11/00 A3023 RMK A01 T01090003  RH  048%=      5-min Rain = 0
KCL2 151838Z 34017KT 11/M01 A3023 RMK A01 T01091005  RH  045%=      5-min Rain = 0
KCL2 151839Z 35012KT 11/M01 A3024 RMK A01 T01051008  RH  045%=      5-min Rain = 0
KCL2 151840Z 36011KT 10/M01 A3024 RMK A01 T01021011  RH  045%=      5-min Rain = 0
KCL2 151841Z 36012KT 10/M01 A3023 RMK A01 T01011007  RH  047%=      5-min Rain = 0
KCL2 151842Z 01011KT 10/M01 A3023 RMK A01 T01021009  RH  046%=      5-min Rain = 0
KCL2 151843Z 00008KT 10/M01 A3023 RMK A01 T01011008  RH  047%=      5-min Rain = 0
KCL2 151844Z 00009KT 10/M00 A3023 RMK A01 T01041002  RH  048%=      5-min Rain = 0
KCL2 151845Z 00011KT 11/M00 A3023 RMK A01 T01061003  RH  047%=      5-min Rain = 0
KCL2 151846Z 00008KT 11/M00 A3023 RMK A01 T01051003  RH  047%=      5-min Rain = 0
KCL2 151847Z 33010G15KT 11/M01 A3023 RMK A01 T01051005  RH  047%=      5-min Rain = 0
KCL2 151848Z 33013KT 11/M01 A3023 RMK A01 T01071009  RH  044%=      5-min Rain = 0
KCL2 151849Z 32012KT 11/M01 A3023 RMK A01 T01081012  RH  043%=      5-min Rain = 0
KCL2 151850Z 32012KT 11/M01 A3023 RMK A01 T01091011  RH  043%=      5-min Rain = 0
KCL2 151851Z 31010KT 11/M01 A3023 RMK A01 T01091013  RH  043%=      5-min Rain = 0
KCL2 151852Z 33010KT 11/M01 A3023 RMK A01 T01091009  RH  044%=      5-min Rain = 0
KCL2 151853Z 31012KT 11/M00 A3023 RMK A01 T01121003  RH  045%=      5-min Rain = 0
KCL2 151854Z 32015KT 12/M00 A3023 RMK A01 T01151004  RH  044%=      5-min Rain = 0
KCL2 151855Z 34012KT 11/M01 A3023 RMK A01 T01121008  RH  043%=      5-min Rain = 0
KCL2 151856Z 33011KT 11/M01 A3023 RMK A01 T01111005  RH  045%=      5-min Rain = 0
KCL2 151857Z 31010KT 11/M01 A3023 RMK A01 T01111008  RH  044%=      5-min Rain = 0
KCL2 151858Z 33007KT 11/M01 A3022 RMK A01 T01081013  RH  043%=      5-min Rain = 0
KCL2 151859Z 33008KT 11/M01 A3022 RMK A01 T01071012  RH  043%=      5-min Rain = 0
KCL2 151900Z 35014KT 11/M01 A3022 RMK A01 T01091009  RH  044%=      5-min Rain = 0
KCL2 151901Z 33012KT 11/M01 A3022 RMK A01 T01101009  RH  044%=      5-min Rain = 0
KCL2 151902Z 32013KT 11/M01 A3022 RMK A01 T01121006  RH  044%=      5-min Rain = 0
KCL2 151903Z 33012KT 11/M01 A3022 RMK A01 T01141008  RH  043%=      5-min Rain = 0
KCL2 151904Z 33013KT 11/M01 A3022 RMK A01 T01141012  RH  042%=      5-min Rain = 0
KCL2 151905Z 34014KT 11/M02 A3022 RMK A01 T01131016  RH  041%=      5-min Rain = 0
KCL2 151906Z 34013KT 11/M02 A3022 RMK A01 T01121015  RH  041%=      5-min Rain = 0
KCL2 151907Z 35010KT 11/M02 A3022 RMK A01 T01101015  RH  042%=      5-min Rain = 0
KCL2 151908Z 33008G13KT 11/M01 A3022 RMK A01 T01081011  RH  044%=      5-min Rain = 0
KCL2 151909Z 32013KT 11/M01 A3022 RMK A01 T01111008  RH  044%=      5-min Rain = 0
KCL2 151910Z 32012G17KT 11/M01 A3022 RMK A01 T01121008  RH  043%=      5-min Rain = 0
KCL2 151911Z 34013KT 11/M01 A3022 RMK A01 T01121007  RH  044%=      5-min Rain = 0
KCL2 151912Z 35010KT 11/M01 A3022 RMK A01 T01121008  RH  043%=      5-min Rain = 0
KCL2 151913Z 32014G19KT 11/M01 A3022 RMK A01 T01121005  RH  044%=      5-min Rain = 0
KCL2 151914Z 33018KT 11/M01 A3022 RMK A01 T01141014  RH  041%=      5-min Rain = 0
KCL2 151915Z 33017KT 11/M02 A3022 RMK A01 T01101016  RH  041%=      5-min Rain = 0
KCL2 151916Z 32014KT 11/M01 A3022 RMK A01 T01101010  RH  043%=      5-min Rain = 0
KCL2 151917Z 32011KT 11/M01 A3022 RMK A01 T01111009  RH  043%=      5-min Rain = 0
KCL2 151918Z 33011KT 11/M01 A3022 RMK A01 T01131008  RH  043%=      5-min Rain = 0
KCL2 151919Z 33009KT 11/M01 A3022 RMK A01 T01121014  RH  042%=      5-min Rain = 0
KCL2 151920Z 32010KT 11/M01 A3022 RMK A01 T01111009  RH  043%=      5-min Rain = 0
KCL2 151921Z 31009KT 11/M01 A3022 RMK A01 T01121010  RH  043%=      5-min Rain = 0
KCL2 151922Z 33011KT 11/M01 A3022 RMK A01 T01111008  RH  044%=      5-min Rain = 0
KCL2 151923Z 33013KT 11/M01 A3022 RMK A01 T01121013  RH  042%=      5-min Rain = 0
KCL2 151924Z 34013KT 11/M02 A3021 RMK A01 T01101017  RH  041%=      5-min Rain = 0
KCL2 151925Z 00012KT 11/M01 A3022 RMK A01 T01081013  RH  043%=      5-min Rain = 0
KCL2 151926Z 35011KT 11/M02 A3021 RMK A01 T01071016  RH  042%=      5-min Rain = 0
KCL2 151927Z 34006KT 11/M02 A3021 RMK A01 T01061016  RH  042%=      5-min Rain = 0
KCL2 151928Z 34009G15KT 11/M02 A3021 RMK A01 T01071018  RH  042%=      5-min Rain = 0
KCL2 151929Z 32012G17KT 11/M01 A3021 RMK A01 T01081013  RH  043%=      5-min Rain = 0
KCL2 151930Z 32012KT 11/M01 A3021 RMK A01 T01101013  RH  043%=      5-min Rain = 0
KCL2 151931Z 34010KT 11/M01 A3021 RMK A01 T01111010  RH  043%=      5-min Rain = 0
KCL2 151932Z 33011KT 11/M01 A3021 RMK A01 T01121010  RH  043%=      5-min Rain = 0
KCL2 151933Z 34012KT 11/M01 A3021 RMK A01 T01121011  RH  042%=      5-min Rain = 0
KCL2 151934Z 35010KT 11/M01 A3021 RMK A01 T01091014  RH  042%=      5-min Rain = 0
KCL2 151935Z 32011KT 11/M01 A3021 RMK A01 T01061013  RH  043%=      5-min Rain = 0
KCL2 151936Z 31010KT 11/M01 A3021 RMK A01 T01071011  RH  044%=      5-min Rain = 0
KCL2 151937Z 31011KT 11/M01 A3021 RMK A01 T01081011  RH  044%=      5-min Rain = 0
KCL2 151938Z 32012KT 11/M01 A3021 RMK A01 T01091007  RH  044%=      5-min Rain = 0
KCL2 151939Z 33012G17KT 11/M01 A3021 RMK A01 T01121006  RH  044%=      5-min Rain = 0
KCL2 151940Z 34010KT 11/M01 A3021 RMK A01 T01141007  RH  043%=      5-min Rain = 0
KCL2 151941Z 34011KT 11/M01 A3021 RMK A01 T01121010  RH  043%=      5-min Rain = 0
KCL2 151942Z 34011KT 11/M01 A3021 RMK A01 T01121008  RH  043%=      5-min Rain = 0
KCL2 151943Z 32010KT 11/M01 A3021 RMK A01 T01141006  RH  044%=      5-min Rain = 0
KCL2 151944Z 34009KT 12/M01 A3021 RMK A01 T01161007  RH  043%=      5-min Rain = 0
KCL2 151945Z 34008KT 12/M01 A3021 RMK A01 T01181006  RH  042%=      5-min Rain = 0
KCL2 151946Z 34014KT 12/M01 A3021 RMK A01 T01181008  RH  042%=      5-min Rain = 0
KCL2 151947Z 34013KT 12/M01 A3021 RMK A01 T01171012  RH  041%=      5-min Rain = 0
KCL2 151948Z 35010KT 12/M01 A3021 RMK A01 T01151014  RH  041%=      5-min Rain = 0
KCL2 151949Z 35011KT 11/M01 A3021 RMK A01 T01141012  RH  042%=      5-min Rain = 0
KCL2 151950Z 32012KT 11/M01 A302 RMK A01 T01131011  RH  042%=      5-min Rain = 0
KCL2 151951Z 32012KT 12/M01 A302 RMK A01 T01151011  RH  042%=      5-min Rain = 0
KCL2 151952Z 31012KT 12/M02 A302 RMK A01 T01151015  RH  040%=      5-min Rain = 0
KCL2 151953Z 32009KT 11/M02 A302 RMK A01 T01141016  RH  040%=      5-min Rain = 0
KCL2 151954Z 34009G15KT 11/M02 A302 RMK A01 T01131018  RH  040%=      5-min Rain = 0
KCL2 151955Z 00013KT 11/M01 A302 RMK A01 T01121014  RH  042%=      5-min Rain = 0
KCL2 151956Z 00011KT 11/M01 A302 RMK A01 T01111012  RH  042%=      5-min Rain = 0
KCL2 151957Z 36009KT 11/M01 A302 RMK A01 T01091012  RH  043%=      5-min Rain = 0
KCL2 151958Z 34010KT 11/M01 A302 RMK A01 T01091011  RH  043%=      5-min Rain = 0
KCL2 151959Z 33014KT 11/M01 A302 RMK A01 T01111013  RH  042%=      5-min Rain = 0
KCL2 152000Z 34013KT 11/M02 A302 RMK A01 T01131016  RH  041%=      5-min Rain = 0
KCL2 152001Z 34015KT 11/M01 A302 RMK A01 T01131014  RH  041%=      5-min Rain = 0
KCL2 152002Z 34013KT 11/M02 A302 RMK A01 T01131015  RH  041%=      5-min Rain = 0
KCL2 152003Z 34013KT 11/M02 A302 RMK A01 T01131016  RH  041%=      5-min Rain = 0
KCL2 152004Z 35009KT 11/M02 A302 RMK A01 T01111015  RH  041%=      5-min Rain = 0
KCL2 152005Z 36010KT 11/M01 A302 RMK A01 T01111013  RH  042%=      5-min Rain = 0
KCL2 152006Z 35009KT 11/M02 A302 RMK A01 T01101015  RH  042%=      5-min Rain = 0
KCL2 152007Z 32012KT 11/M02 A302 RMK A01 T01121015  RH  041%=      5-min Rain = 0
KCL2 152008Z 33013KT 11/M02 A302 RMK A01 T01131022  RH  039%=      5-min Rain = 0
KCL2 152009Z 33011KT 11/M02 A302 RMK A01 T01141019  RH  040%=      5-min Rain = 0
KCL2 152010Z 34012KT 11/M02 A302 RMK A01 T01141017  RH  040%=      5-min Rain = 0
KCL2 152011Z 34007KT 11/M02 A302 RMK A01 T01131016  RH  041%=      5-min Rain = 0
KCL2 152012Z 35010KT 11/M01 A302 RMK A01 T01131014  RH  041%=      5-min Rain = 0
KCL2 152013Z 00012KT 11/M02 A302 RMK A01 T01131016  RH  041%=      5-min Rain = 0
KCL2 152014Z 35011G16KT 11/M02 A302 RMK A01 T01131018  RH  040%=      5-min Rain = 0
KCL2 152015Z 35013KT 11/M02 A3019 RMK A01 T01121016  RH  041%=      5-min Rain = 0
KCL2 152016Z 34011KT 11/M01 A3019 RMK A01 T01121013  RH  042%=      5-min Rain = 0
KCL2 152017Z 34013KT 11/M01 A3019 RMK A01 T01121012  RH  042%=      5-min Rain = 0
KCL2 152018Z 32009KT 11/M01 A3019 RMK A01 T01121013  RH  042%=      5-min Rain = 0
KCL2 152019Z 32010KT 11/M01 A3019 RMK A01 T01111013  RH  042%=      5-min Rain = 0
KCL2 152020Z 33012KT 11/M01 A3019 RMK A01 T01121009  RH  043%=      5-min Rain = 0
KCL2 152021Z 33008KT 11/M01 A3019 RMK A01 T01131012  RH  042%=      5-min Rain = 0
KCL2 152022Z 00008KT 11/M01 A3019 RMK A01 T01121009  RH  043%=      5-min Rain = 0
KCL2 152023Z 34010KT 11/M01 A3019 RMK A01 T01141008  RH  043%=      5-min Rain = 0
KCL2 152024Z 34010KT 12/M01 A3019 RMK A01 T01151013  RH  041%=      5-min Rain = 0
KCL2 152025Z 33012KT 12/M01 A3019 RMK A01 T01171011  RH  041%=      5-min Rain = 0
KCL2 152026Z 31012G17KT 12/M01 A3019 RMK A01 T01181012  RH  041%=      5-min Rain = 0
KCL2 152027Z 32011KT 12/M01 A3019 RMK A01 T01181011  RH  041%=      5-min Rain = 0
KCL2 152028Z 32012KT 12/M01 A3019 RMK A01 T01201009  RH  041%=      5-min Rain = 0
KCL2 152029Z 33011G18KT 12/M01 A3019 RMK A01 T01201012  RH  040%=      5-min Rain = 0
KCL2 152030Z 33014KT 12/M02 A3019 RMK A01 T01191015  RH  039%=      5-min Rain = 0
KCL2 152031Z 34011KT 12/M02 A3019 RMK A01 T01171018  RH  039%=      5-min Rain = 0
KCL2 152032Z 35009KT 12/M02 A3019 RMK A01 T01151017  RH  040%=      5-min Rain = 0
KCL2 152033Z 34010KT 12/M02 A3019 RMK A01 T01161017  RH  040%=      5-min Rain = 0
KCL2 152034Z 34012G17KT 12/M02 A3019 RMK A01 T01171015  RH  040%=      5-min Rain = 0
KCL2 152035Z 33012KT 12/M02 A3019 RMK A01 T01191015  RH  039%=      5-min Rain = 0
KCL2 152036Z 34012KT 12/M02 A3019 RMK A01 T01171016  RH  040%=      5-min Rain = 0
KCL2 152037Z 35012KT 12/M01 A3019 RMK A01 T01161013  RH  041%=      5-min Rain = 0
KCL2 152038Z 34013KT 12/M01 A3019 RMK A01 T01161012  RH  041%=      5-min Rain = 0
KCL2 152039Z 35009G15KT 12/M01 A3019 RMK A01 T01151012  RH  041%=      5-min Rain = 0
KCL2 152040Z 35014KT 11/M01 A3019 RMK A01 T01141011  RH  042%=      5-min Rain = 0
KCL2 152041Z 35010KT 11/M01 A3019 RMK A01 T01121014  RH  042%=      5-min Rain = 0
KCL2 152042Z 36006G11KT 11/M01 A3018 RMK A01 T01091012  RH  043%=      5-min Rain = 0
KCL2 152043Z 01010KT 11/M00 A3018 RMK A01 T01131002  RH  045%=      5-min Rain = 0
KCL2 152044Z 01008KT 11/M01 A3018 RMK A01 T01141007  RH  043%=      5-min Rain = 0
KCL2 152045Z 35006KT 11/M01 A3018 RMK A01 T01141005  RH  044%=      5-min Rain = 0
KCL2 152046Z 34010G17KT 12/M00 A3018 RMK A01 T01161003  RH  044%=      5-min Rain = 0
KCL2 152047Z 35012KT 12/M00 A3018 RMK A01 T01211004  RH  042%=      5-min Rain = 0
KCL2 152048Z 00011KT 12/M01 A3018 RMK A01 T01201012  RH  040%=      5-min Rain = 0
KCL2 152049Z 35010KT 12/M01 A3018 RMK A01 T01161012  RH  041%=      5-min Rain = 0
KCL2 152050Z 01009KT 12/M01 A3018 RMK A01 T01161013  RH  041%=      5-min Rain = 0
KCL2 152051Z 00011KT 12/M02 A3018 RMK A01 T01161016  RH  040%=      5-min Rain = 0
KCL2 152052Z 01008KT 11/M02 A3018 RMK A01 T01131020  RH  040%=      5-min Rain = 0
KCL2 152053Z 34006KT 11/M02 A3018 RMK A01 T01121017  RH  041%=      5-min Rain = 0
KCL2 152054Z 00008KT 11/M01 A3018 RMK A01 T01141007  RH  043%=      5-min Rain = 0
KCL2 152055Z 35012KT 12/M01 A3018 RMK A01 T01171007  RH  042%=      5-min Rain = 0
KCL2 152056Z 34013KT 12/M01 A3018 RMK A01 T01161011  RH  041%=      5-min Rain = 0
KCL2 152057Z 34011KT 12/M01 A3017 RMK A01 T01151014  RH  041%=      5-min Rain = 0
KCL2 152058Z 33009KT 12/M01 A3017 RMK A01 T01151013  RH  041%=      5-min Rain = 0
KCL2 152059Z 33009KT 12/M01 A3017 RMK A01 T01171011  RH  041%=      5-min Rain = 0
KCL2 152100Z 34010G15KT 12/M01 A3017 RMK A01 T01191011  RH  041%=      5-min Rain = 0
KCL2 152101Z 35012KT 12/M01 A3017 RMK A01 T01181013  RH  040%=      5-min Rain = 0
KCL2 152102Z 36008KT 12/M01 A3017 RMK A01 T01161013  RH  041%=      5-min Rain = 0
KCL2 152103Z 01006KT 12/M01 A3017 RMK A01 T01151010  RH  042%=      5-min Rain = 0
KCL2 152104Z 35008KT 12/M01 A3017 RMK A01 T01161012  RH  041%=      5-min Rain = 0
KCL2 152105Z 31011KT 12/M01 A3017 RMK A01 T01181008  RH  042%=      5-min Rain = 0
KCL2 152106Z 31009KT 12/M01 A3017 RMK A01 T01211009  RH  041%=      5-min Rain = 0
KCL2 152107Z 32013KT 12/M01 A3017 RMK A01 T01211011  RH  040%=      5-min Rain = 0
KCL2 152108Z 32015KT 12/M01 A3017 RMK A01 T01211013  RH  039%=      5-min Rain = 0
KCL2 152109Z 33012KT 12/M02 A3017 RMK A01 T01201016  RH  039%=      5-min Rain = 0
KCL2 152110Z 32011KT 12/M02 A3017 RMK A01 T01181017  RH  039%=      5-min Rain = 0
KCL2 152111Z 32013KT 12/M02 A3017 RMK A01 T01181016  RH  039%=      5-min Rain = 0
KCL2 152112Z 32011KT 12/M02 A3017 RMK A01 T01181018  RH  039%=      5-min Rain = 0
KCL2 152113Z 33014KT 12/M02 A3017 RMK A01 T01181017  RH  039%=      5-min Rain = 0
KCL2 152114Z 34014KT 12/M02 A3017 RMK A01 T01181021  RH  038%=      5-min Rain = 0
KCL2 152115Z 34013KT 12/M02 A3017 RMK A01 T01161023  RH  038%=      5-min Rain = 0
KCL2 152116Z 34014G19KT 11/M02 A3017 RMK A01 T01141022  RH  039%=      5-min Rain = 0
KCL2 152117Z 33014KT 11/M02 A3017 RMK A01 T01131022  RH  039%=      5-min Rain = 0
KCL2 152118Z 33010KT 11/M02 A3017 RMK A01 T01141020  RH  039%=      5-min Rain = 0
KCL2 152119Z 33014KT 12/M01 A3017 RMK A01 T01151014  RH  041%=      5-min Rain = 0
KCL2 152120Z 34012KT 12/M02 A3017 RMK A01 T01171016  RH  040%=      5-min Rain = 0
KCL2 152121Z 34014KT 12/M02 A3017 RMK A01 T01161017  RH  039%=      5-min Rain = 0
KCL2 152122Z 33011KT 11/M02 A3017 RMK A01 T01141017  RH  040%=      5-min Rain = 0
KCL2 152123Z 33011KT 12/M02 A3017 RMK A01 T01151016  RH  040%=      5-min Rain = 0
KCL2 152124Z 33008KT 12/M02 A3017 RMK A01 T01151015  RH  040%=      5-min Rain = 0
KCL2 152125Z 34008KT 12/M02 A3017 RMK A01 T01161015  RH  040%=      5-min Rain = 0
KCL2 152126Z 33007KT 12/M02 A3017 RMK A01 T01161017  RH  040%=      5-min Rain = 0
KCL2 152127Z 33006KT 12/M02 A3017 RMK A01 T01171018  RH  039%=      5-min Rain = 0
KCL2 152128Z 33015KT 12/M02 A3017 RMK A01 T01161016  RH  040%=      5-min Rain = 0
KCL2 152129Z 34012KT 12/M02 A3017 RMK A01 T01171016  RH  040%=      5-min Rain = 0
KCL2 152130Z 33010KT 12/M02 A3017 RMK A01 T01161016  RH  040%=      5-min Rain = 0
KCL2 152131Z 34007KT 12/M02 A3017 RMK A01 T01161015  RH  040%=      5-min Rain = 0
KCL2 152132Z 33009KT 12/M01 A3017 RMK A01 T01161014  RH  040%=      5-min Rain = 0
KCL2 152133Z 00007KT 12/M01 A3017 RMK A01 T01181013  RH  040%=      5-min Rain = 0
KCL2 152134Z 00009KT 12/M01 A3017 RMK A01 T01181011  RH  041%=      5-min Rain = 0
KCL2 152135Z 33009KT 12/M01 A3017 RMK A01 T01171012  RH  041%=      5-min Rain = 0
KCL2 152136Z 33013KT 12/M01 A3017 RMK A01 T01201014  RH  039%=      5-min Rain = 0
KCL2 152137Z 00012KT 12/M01 A3017 RMK A01 T01201012  RH  040%=      5-min Rain = 0
KCL2 152138Z 00011KT 12/M01 A3017 RMK A01 T01201011  RH  040%=      5-min Rain = 0
KCL2 152139Z 36015KT 12/M01 A3017 RMK A01 T01171013  RH  040%=      5-min Rain = 0
KCL2 152140Z 34012KT 12/M02 A3017 RMK A01 T01151018  RH  040%=      5-min Rain = 0
KCL2 152141Z 34012KT 11/M02 A3017 RMK A01 T01141021  RH  039%=      5-min Rain = 0
KCL2 152142Z 35011KT 11/M03 A3017 RMK A01 T01141025  RH  038%=      5-min Rain = 0
KCL2 152143Z 34011G16KT 11/M02 A3016 RMK A01 T01141022  RH  039%=      5-min Rain = 0
KCL2 152144Z 33009KT 12/M02 A3017 RMK A01 T01151019  RH  039%=      5-min Rain = 0
KCL2 152145Z 34011G16KT 12/M02 A3017 RMK A01 T01151019  RH  039%=      5-min Rain = 0
KCL2 152146Z 33012KT 12/M02 A3017 RMK A01 T01171017  RH  039%=      5-min Rain = 0
KCL2 152147Z 34012KT 12/M02 A3017 RMK A01 T01191018  RH  039%=      5-min Rain = 0
KCL2 152148Z 32011KT 12/M02 A3017 RMK A01 T01171020  RH  038%=      5-min Rain = 0
KCL2 152149Z 31012KT 12/M02 A3017 RMK A01 T01161022  RH  038%=      5-min Rain = 0
KCL2 152150Z 32014KT 12/M02 A3017 RMK A01 T01161023  RH  038%=      5-min Rain = 0
KCL2 152151Z 33014KT 12/M02 A3017 RMK A01 T01171021  RH  038%=      5-min Rain = 0
KCL2 152152Z 33014G19KT 12/M02 A3017 RMK A01 T01171018  RH  039%=      5-min Rain = 0
KCL2 152153Z 33014KT 12/M02 A3017 RMK A01 T01171016  RH  040%=      5-min Rain = 0
KCL2 152154Z 33009G14KT 12/M02 A3017 RMK A01 T01161016  RH  040%=      5-min Rain = 0
KCL2 152155Z 32008KT 12/M01 A3017 RMK A01 T01171013  RH  041%=      5-min Rain = 0
KCL2 152156Z 32011KT 12/M02 A3017 RMK A01 T01191015  RH  039%=      5-min Rain = 0
KCL2 152157Z 31010KT 12/M02 A3017 RMK A01 T01181015  RH  040%=      5-min Rain = 0
KCL2 152158Z 33010KT 12/M01 A3017 RMK A01 T01181011  RH  041%=      5-min Rain = 0
KCL2 152159Z 33008KT 12/M01 A3017 RMK A01 T01201010  RH  041%=      5-min Rain = 0
KCL2 152200Z 34011KT 12/M01 A3017 RMK A01 T01201010  RH  041%=      5-min Rain = 0
KCL2 152201Z 35007KT 12/M01 A3017 RMK A01 T01201007  RH  041%=      5-min Rain = 0
KCL2 152202Z 34009KT 12/M01 A3017 RMK A01 T01201009  RH  041%=      5-min Rain = 0
KCL2 152203Z 34011KT 12/M01 A3017 RMK A01 T01181012  RH  040%=      5-min Rain = 0
KCL2 152204Z 34013KT 12/M01 A3016 RMK A01 T01171013  RH  040%=      5-min Rain = 0
KCL2 152205Z 31013KT 12/M01 A3016 RMK A01 T01171013  RH  040%=      5-min Rain = 0
KCL2 152206Z 32011KT 12/M01 A3016 RMK A01 T01181012  RH  041%=      5-min Rain = 0
KCL2 152207Z 32008KT 12/M01 A3017 RMK A01 T01191012  RH  040%=      5-min Rain = 0
KCL2 152208Z 34009KT 12/M01 A3017 RMK A01 T01191013  RH  040%=      5-min Rain = 0
KCL2 152209Z 32013KT 12/M02 A3016 RMK A01 T01201018  RH  038%=      5-min Rain = 0
KCL2 152210Z 33011KT 12/M02 A3016 RMK A01 T01191016  RH  039%=      5-min Rain = 0
KCL2 152211Z 34012KT 12/M02 A3017 RMK A01 T01191015  RH  039%=      5-min Rain = 0
KCL2 152212Z 32012KT 12/M02 A3016 RMK A01 T01171017  RH  039%=      5-min Rain = 0
KCL2 152213Z 33014KT 12/M02 A3016 RMK A01 T01161019  RH  039%=      5-min Rain = 0
KCL2 152214Z 34013KT 12/M02 A3016 RMK A01 T01151017  RH  040%=      5-min Rain = 0
KCL2 152215Z 35012KT 12/M02 A3017 RMK A01 T01151019  RH  039%=      5-min Rain = 0
KCL2 152216Z 36010KT 11/M02 A3016 RMK A01 T01131017  RH  040%=      5-min Rain = 0
KCL2 152217Z 35010KT 11/M02 A3016 RMK A01 T01121018  RH  040%=      5-min Rain = 0
KCL2 152218Z 33009KT 11/M02 A3016 RMK A01 T01121016  RH  041%=      5-min Rain = 0
KCL2 152219Z 33008KT 12/M02 A3016 RMK A01 T01161015  RH  040%=      5-min Rain = 0
KCL2 152220Z 34008KT 12/M02 A3016 RMK A01 T01161019  RH  039%=      5-min Rain = 0
KCL2 152221Z 34010KT 12/M02 A3016 RMK A01 T01171016  RH  040%=      5-min Rain = 0
KCL2 152222Z 34012KT 12/M02 A3016 RMK A01 T01171016  RH  040%=      5-min Rain = 0
KCL2 152223Z 35011KT 12/M02 A3016 RMK A01 T01151020  RH  039%=      5-min Rain = 0
KCL2 152224Z 36009KT 11/M02 A3016 RMK A01 T01121020  RH  040%=      5-min Rain = 0
KCL2 152225Z 01009KT 11/M02 A3016 RMK A01 T01131018  RH  040%=      5-min Rain = 0
KCL2 152226Z 00009KT 11/M02 A3016 RMK A01 T01121022  RH  039%=      5-min Rain = 0
KCL2 152227Z 34009KT 11/M02 A3016 RMK A01 T01121020  RH  040%=      5-min Rain = 0
KCL2 152228Z 33012KT 11/M02 A3016 RMK A01 T01141020  RH  039%=      5-min Rain = 0
KCL2 152229Z 33008KT 11/M02 A3016 RMK A01 T01141020  RH  039%=      5-min Rain = 0
KCL2 152230Z 33008KT 11/M02 A3016 RMK A01 T01141020  RH  039%=      5-min Rain = 0
KCL2 152231Z 32010KT 12/M02 A3016 RMK A01 T01151018  RH  040%=      5-min Rain = 0
KCL2 152232Z 33010KT 12/M02 A3016 RMK A01 T01161015  RH  040%=      5-min Rain = 0
KCL2 152233Z 33011KT 12/M01 A3016 RMK A01 T01171013  RH  041%=      5-min Rain = 0
KCL2 152234Z 34008KT 12/M01 A3016 RMK A01 T01161013  RH  041%=      5-min Rain = 0
KCL2 152235Z 34007KT 12/M01 A3016 RMK A01 T01161011  RH  041%=      5-min Rain = 0
KCL2 152236Z 36007KT 12/M01 A3016 RMK A01 T01171012  RH  041%=      5-min Rain = 0
KCL2 152237Z 00006KT 12/M01 A3016 RMK A01 T01171009  RH  042%=      5-min Rain = 0
KCL2 152238Z 35009KT 12/M01 A3016 RMK A01 T01161014  RH  041%=      5-min Rain = 0
KCL2 152239Z 35011KT 11/M02 A3016 RMK A01 T01141015  RH  041%=      5-min Rain = 0
KCL2 152240Z 36011KT 11/M02 A3016 RMK A01 T01141017  RH  040%=      5-min Rain = 0
KCL2 152241Z 36012KT 11/M02 A3016 RMK A01 T01131017  RH  040%=      5-min Rain = 0
KCL2 152242Z 36010KT 11/M02 A3016 RMK A01 T01111017  RH  041%=      5-min Rain = 0
KCL2 152243Z 00009KT 11/M02 A3016 RMK A01 T01111018  RH  041%=      5-min Rain = 0
KCL2 152244Z 36007KT 11/M02 A3016 RMK A01 T01101017  RH  041%=      5-min Rain = 0
KCL2 152245Z 36007KT 11/M02 A3016 RMK A01 T01101017  RH  041%=      5-min Rain = 0
KCL2 152246Z 35009KT 11/M02 A3016 RMK A01 T01111016  RH  041%=      5-min Rain = 0
KCL2 152247Z 33010KT 11/M01 A3016 RMK A01 T01121013  RH  042%=      5-min Rain = 0
KCL2 152248Z 34009KT 11/M02 A3016 RMK A01 T01131015  RH  041%=      5-min Rain = 0
KCL2 152249Z 35009KT 11/M02 A3016 RMK A01 T01131016  RH  041%=      5-min Rain = 0
KCL2 152250Z 32009KT 11/M02 A3016 RMK A01 T01121016  RH  041%=      5-min Rain = 0
KCL2 152251Z 31009KT 11/M02 A3016 RMK A01 T01131017  RH  041%=      5-min Rain = 0
KCL2 152252Z 32011KT 11/M02 A3016 RMK A01 T01131016  RH  041%=      5-min Rain = 0
KCL2 152253Z 33013KT 11/M02 A3016 RMK A01 T01141015  RH  041%=      5-min Rain = 0
KCL2 152254Z 33012KT 11/M02 A3016 RMK A01 T01141017  RH  040%=      5-min Rain = 0
KCL2 152255Z 33011KT 11/M02 A3016 RMK A01 T01121021  RH  039%=      5-min Rain = 0
KCL2 152256Z 33010KT 11/M02 A3016 RMK A01 T01111024  RH  039%=      5-min Rain = 0
KCL2 152257Z 33012KT 11/M02 A3016 RMK A01 T01111020  RH  040%=      5-min Rain = 0
KCL2 152258Z 35009KT 11/M02 A3016 RMK A01 T01121023  RH  039%=      5-min Rain = 0
KCL2 152259Z 33009KT 11/M02 A3016 RMK A01 T01101021  RH  040%=      5-min Rain = 0
KCL2 152300Z 33009KT 11/M02 A3016 RMK A01 T01101019  RH  041%=      5-min Rain = 0
KCL2 152301Z 33010KT 11/M02 A3016 RMK A01 T01121019  RH  040%=      5-min Rain = 0
KCL2 152302Z 33009KT 11/M02 A3016 RMK A01 T01121019  RH  040%=      5-min Rain = 0
KCL2 152303Z 32008KT 11/M02 A3016 RMK A01 T01121019  RH  040%=      5-min Rain = 0
KCL2 152304Z 32009KT 11/M02 A3016 RMK A01 T01121017  RH  040%=      5-min Rain = 0
KCL2 152305Z 33009KT 11/M02 A3016 RMK A01 T01131018  RH  040%=      5-min Rain = 0
KCL2 152306Z 32007KT 11/M02 A3016 RMK A01 T01141016  RH  040%=      5-min Rain = 0
KCL2 152307Z 33009KT 11/M02 A3016 RMK A01 T01141017  RH  040%=      5-min Rain = 0
KCL2 152308Z 32009KT 11/M02 A3016 RMK A01 T01141018  RH  040%=      5-min Rain = 0
KCL2 152309Z 32010KT 11/M02 A3016 RMK A01 T01141021  RH  039%=      5-min Rain = 0
KCL2 152310Z 35009KT 11/M02 A3016 RMK A01 T01131022  RH  039%=      5-min Rain = 0
KCL2 152311Z 34007KT 11/M02 A3016 RMK A01 T01121024  RH  038%=      5-min Rain = 0
KCL2 152312Z 34008KT 11/M03 A3016 RMK A01 T01101025  RH  039%=      5-min Rain = 0
KCL2 152313Z 35009KT 11/M03 A3016 RMK A01 T01091025  RH  039%=      5-min Rain = 0
KCL2 152314Z 35007KT 11/M03 A3016 RMK A01 T01091025  RH  039%=      5-min Rain = 0
KCL2 152315Z 35009KT 11/M02 A3016 RMK A01 T01091024  RH  040%=      5-min Rain = 0
KCL2 152316Z 33007KT 11/M02 A3016 RMK A01 T01091022  RH  040%=      5-min Rain = 0
KCL2 152317Z 32010KT 11/M02 A3016 RMK A01 T01111019  RH  040%=      5-min Rain = 0
KCL2 152318Z 32008KT 11/M02 A3016 RMK A01 T01111021  RH  040%=      5-min Rain = 0
KCL2 152319Z 31006KT 11/M02 A3016 RMK A01 T01111022  RH  040%=      5-min Rain = 0
KCL2 152320Z 32005KT 11/M02 A3016 RMK A01 T01101019  RH  040%=      5-min Rain = 0
KCL2 152321Z 34007KT 11/M02 A3016 RMK A01 T01111018  RH  040%=      5-min Rain = 0
KCL2 152322Z 34009KT 11/M03 A3016 RMK A01 T01111026  RH  038%=      5-min Rain = 0
KCL2 152323Z 35010KT 11/M03 A3016 RMK A01 T01091026  RH  039%=      5-min Rain = 0
KCL2 152324Z 34008KT 11/M03 A3016 RMK A01 T01081025  RH  039%=      5-min Rain = 0
KCL2 152325Z 33005KT 11/M03 A3016 RMK A01 T01071025  RH  039%=      5-min Rain = 0
KCL2 152326Z 34006KT 11/M02 A3016 RMK A01 T01071024  RH  040%=      5-min Rain = 0
KCL2 152327Z 34008KT 11/M02 A3016 RMK A01 T01081023  RH  040%=      5-min Rain = 0
KCL2 152328Z 33009KT 11/M02 A3016 RMK A01 T01071024  RH  040%=      5-min Rain = 0
KCL2 152329Z 33009KT 11/M02 A3016 RMK A01 T01071024  RH  040%=      5-min Rain = 0
KCL2 152330Z 33007KT 11/M03 A3016 RMK A01 T01071025  RH  040%=      5-min Rain = 0
KCL2 152331Z 35009KT 11/M02 A3016 RMK A01 T01071024  RH  040%=      5-min Rain = 0
KCL2 152332Z 33008KT 11/M02 A3016 RMK A01 T01071023  RH  040%=      5-min Rain = 0
KCL2 152333Z 32009KT 11/M02 A3016 RMK A01 T01071023  RH  040%=      5-min Rain = 0
KCL2 152334Z 33008KT 11/M02 A3016 RMK A01 T01071023  RH  040%=      5-min Rain = 0
KCL2 152335Z 33007KT 11/M02 A3016 RMK A01 T01071024  RH  040%=      5-min Rain = 0
KCL2 152336Z 34006KT 11/M03 A3016 RMK A01 T01071025  RH  040%=      5-min Rain = 0
KCL2 152337Z 35006KT 11/M03 A3016 RMK A01 T01071026  RH  039%=      5-min Rain = 0
KCL2 152338Z 34008KT 11/M02 A3016 RMK A01 T01061024  RH  040%=      5-min Rain = 0
KCL2 152339Z 35007KT 11/M03 A3016 RMK A01 T01051025  RH  040%=      5-min Rain = 0
KCL2 152340Z 35006KT 10/M02 A3016 RMK A01 T01041023  RH  041%=      5-min Rain = 0
KCL2 152341Z 34005KT 10/M02 A3016 RMK A01 T01041023  RH  041%=      5-min Rain = 0
KCL2 152342Z 32006KT 10/M02 A3016 RMK A01 T01041023  RH  041%=      5-min Rain = 0
KCL2 152343Z 32007KT 11/M02 A3016 RMK A01 T01051023  RH  041%=      5-min Rain = 0
KCL2 152344Z 32006KT 11/M02 A3016 RMK A01 T01051022  RH  041%=      5-min Rain = 0
KCL2 152345Z 32006KT 11/M02 A3016 RMK A01 T01051022  RH  041%=      5-min Rain = 0
KCL2 152346Z 31007KT 11/M02 A3016 RMK A01 T01051021  RH  041%=      5-min Rain = 0
KCL2 152347Z 31007KT 11/M02 A3016 RMK A01 T01051022  RH  041%=      5-min Rain = 0
KCL2 152348Z 31006KT 10/M02 A3016 RMK A01 T01041020  RH  042%=      5-min Rain = 0
KCL2 152349Z 32006KT 10/M02 A3016 RMK A01 T01041022  RH  041%=      5-min Rain = 0
KCL2 152350Z 33004KT 10/M02 A3017 RMK A01 T01041021  RH  042%=      5-min Rain = 0
KCL2 152351Z 32006KT 10/M02 A3017 RMK A01 T01031022  RH  041%=      5-min Rain = 0
KCL2 152352Z 32005KT 10/M02 A3017 RMK A01 T01031023  RH  041%=      5-min Rain = 0
KCL2 152353Z 31005KT 10/M02 A3017 RMK A01 T01031023  RH  041%=      5-min Rain = 0
KCL2 152354Z 31005KT 10/M02 A3017 RMK A01 T01031023  RH  041%=      5-min Rain = 0
KCL2 152355Z 32006KT 10/M02 A3017 RMK A01 T01021022  RH  042%=      5-min Rain = 0
KCL2 152356Z 33006KT 10/M02 A3017 RMK A01 T01021023  RH  042%=      5-min Rain = 0
KCL2 152357Z 33005KT 10/M02 A3017 RMK A01 T01011024  RH  041%=      5-min Rain = 0
KCL2 152358Z 32005KT 10/M02 A3017 RMK A01 T01011022  RH  042%=      5-min Rain = 0
KCL2 152359Z 32005KT 10/M02 A3017 RMK A01 T01001022  RH  042%=      5-min Rain = 0
KCL2 160000Z 33004KT 10/M02 A3017 RMK A01 T01001023  RH  042%=      5-min Rain = 0
KCL2 160001Z 33004KT 10/M02 A3017 RMK A01 T00991023  RH  042%=      5-min Rain = 0
KCL2 160002Z 32004KT 10/M02 A3017 RMK A01 T00991022  RH  043%=      5-min Rain = 0
KCL2 160003Z 31004KT 10/M02 A3017 RMK A01 T00981021  RH  043%=      5-min Rain = 0
KCL2 160004Z 31005KT 10/M02 A3017 RMK A01 T00971021  RH  044%=      5-min Rain = 0
KCL2 160005Z 32005KT 10/M02 A3016 RMK A01 T00961020  RH  044%=      5-min Rain = 0
KCL2 160006Z 32006KT 10/M02 A3016 RMK A01 T00961020  RH  044%=      5-min Rain = 0
KCL2 160007Z 32005KT 10/M02 A3016 RMK A01 T00951020  RH  044%=      5-min Rain = 0
KCL2 160008Z 32005KT 09/M02 A3016 RMK A01 T00941019  RH  045%=      5-min Rain = 0
KCL2 160009Z 32005KT 09/M02 A3016 RMK A01 T00931019  RH  045%=      5-min Rain = 0
KCL2 160010Z 32005KT 09/M02 A3016 RMK A01 T00921019  RH  046%=      5-min Rain = 0
KCL2 160011Z 32005KT 09/M02 A3016 RMK A01 T00921019  RH  046%=      5-min Rain = 0
KCL2 160012Z 32006KT 09/M02 A3016 RMK A01 T00911020  RH  046%=      5-min Rain = 0
KCL2 160013Z 32005KT 09/M02 A3016 RMK A01 T00901021  RH  046%=      5-min Rain = 0
KCL2 160014Z 33005KT 09/M02 A3016 RMK A01 T00891021  RH  046%=      5-min Rain = 0
KCL2 160015Z 33005KT 09/M02 A3016 RMK A01 T00881021  RH  046%=      5-min Rain = 0
KCL2 160016Z 34005KT 09/M02 A3016 RMK A01 T00871021  RH  046%=      5-min Rain = 0
KCL2 160017Z 34005KT 09/M02 A3016 RMK A01 T00861021  RH  047%=      5-min Rain = 0
KCL2 160018Z 34005KT 09/M02 A3016 RMK A01 T00851021  RH  047%=      5-min Rain = 0
KCL2 160019Z 34004KT 08/M02 A3016 RMK A01 T00831021  RH  048%=      5-min Rain = 0
KCL2 160020Z 34005KT 08/M02 A3016 RMK A01 T00821021  RH  048%=      5-min Rain = 0
KCL2 160021Z 34005KT 08/M02 A3016 RMK A01 T00811022  RH  048%=      5-min Rain = 0
KCL2 160022Z 35005KT 08/M02 A3016 RMK A01 T00801021  RH  049%=      5-min Rain = 0
KCL2 160023Z 34004KT 08/M02 A3016 RMK A01 T00791021  RH  049%=      5-min Rain = 0
KCL2 160024Z 35004KT 08/M02 A3016 RMK A01 T00781021  RH  050%=      5-min Rain = 0
KCL2 160025Z 35004KT 08/M02 A3016 RMK A01 T00771020  RH  050%=      5-min Rain = 0
KCL2 160026Z 35004KT 08/M02 A3016 RMK A01 T00761020  RH  051%=      5-min Rain = 0
KCL2 160027Z 35004KT 08/M02 A3016 RMK A01 T00751019  RH  051%=      5-min Rain = 0
KCL2 160028Z 35005KT 07/M02 A3016 RMK A01 T00741020  RH  051%=      5-min Rain = 0
KCL2 160029Z 35004KT 07/M02 A3016 RMK A01 T00731019  RH  052%=      5-min Rain = 0
KCL2 160030Z 35005KT 07/M02 A3016 RMK A01 T00731019  RH  052%=      5-min Rain = 0
KCL2 160031Z 35005KT 07/M02 A3016 RMK A01 T00731017  RH  053%=      5-min Rain = 0
KCL2 160032Z 35005KT 07/M02 A3016 RMK A01 T00731017  RH  053%=      5-min Rain = 0
KCL2 160033Z 35005KT 07/M02 A3016 RMK A01 T00721018  RH  053%=      5-min Rain = 0
KCL2 160034Z 35005KT 07/M02 A3016 RMK A01 T00711017  RH  054%=      5-min Rain = 0
KCL2 160035Z 35005KT 07/M02 A3016 RMK A01 T00701016  RH  054%=      5-min Rain = 0
KCL2 160036Z 36005KT 07/M01 A3015 RMK A01 T00701014  RH  055%=      5-min Rain = 0
KCL2 160037Z 36005KT 07/M01 A3015 RMK A01 T00691013  RH  056%=      5-min Rain = 0
KCL2 160038Z 36005KT 07/M01 A3015 RMK A01 T00691014  RH  056%=      5-min Rain = 0
KCL2 160039Z 36005KT 07/M01 A3015 RMK A01 T00691013  RH  056%=      5-min Rain = 0
KCL2 160040Z 36005KT 07/M01 A3016 RMK A01 T00701012  RH  056%=      5-min Rain = 0
KCL2 160041Z 35005KT 07/M01 A3016 RMK A01 T00701012  RH  056%=      5-min Rain = 0
KCL2 160042Z 35005KT 07/M01 A3016 RMK A01 T00701012  RH  056%=      5-min Rain = 0
KCL2 160043Z 36004KT 07/M01 A3016 RMK A01 T00701013  RH  056%=      5-min Rain = 0
KCL2 160044Z 35004KT 07/M01 A3016 RMK A01 T00701014  RH  055%=      5-min Rain = 0
KCL2 160045Z 35004KT 07/M01 A3016 RMK A01 T00701014  RH  055%=      5-min Rain = 0
KCL2 160046Z 35004KT 07/M01 A3016 RMK A01 T00691014  RH  055%=      5-min Rain = 0
KCL2 160047Z 35004KT 07/M01 A3015 RMK A01 T00691014  RH  055%=      5-min Rain = 0
KCL2 160048Z 36004KT 07/M01 A3015 RMK A01 T00691013  RH  056%=      5-min Rain = 0
KCL2 160049Z 00004KT 07/M01 A3015 RMK A01 T00691011  RH  057%=      5-min Rain = 0
KCL2 160050Z 00004KT 07/M01 A3015 RMK A01 T00691011  RH  057%=      5-min Rain = 0
KCL2 160051Z 00004KT 07/M01 A3015 RMK A01 T00681011  RH  057%=      5-min Rain = 0
KCL2 160052Z 00004KT 07/M01 A3015 RMK A01 T00681010  RH  057%=      5-min Rain = 0
KCL2 160053Z 01004KT 07/M01 A3015 RMK A01 T00681010  RH  058%=      5-min Rain = 0
KCL2 160054Z 00003KT 07/M01 A3015 RMK A01 T00671010  RH  058%=      5-min Rain = 0
KCL2 160055Z 00003KT 07/M01 A3015 RMK A01 T00671012  RH  057%=      5-min Rain = 0
KCL2 160056Z 00003KT 07/M01 A3015 RMK A01 T00671011  RH  057%=      5-min Rain = 0
KCL2 160057Z 01003KT 07/M01 A3015 RMK A01 T00671011  RH  057%=      5-min Rain = 0
KCL2 160058Z 00003KT 07/M01 A3015 RMK A01 T00661013  RH  057%=      5-min Rain = 0
KCL2 160059Z 00004KT 07/M01 A3015 RMK A01 T00661013  RH  057%=      5-min Rain = 0
KCL2 160100Z 01004KT 07/M01 A3015 RMK A01 T00651012  RH  058%=      5-min Rain = 0
KCL2 160101Z 01004KT 06/M01 A3015 RMK A01 T00641011  RH  058%=      5-min Rain = 0
KCL2 160102Z 01004KT 06/M01 A3015 RMK A01 T00641011  RH  059%=      5-min Rain = 0
KCL2 160103Z 01004KT 06/M01 A3015 RMK A01 T00641011  RH  059%=      5-min Rain = 0
KCL2 160104Z 01004KT 06/M01 A3015 RMK A01 T00641011  RH  059%=      5-min Rain = 0
KCL2 160105Z 01004KT 07/M01 A3015 RMK A01 T00651010  RH  059%=      5-min Rain = 0
KCL2 160106Z 01005KT 07/M01 A3015 RMK A01 T00651009  RH  059%=      5-min Rain = 0
KCL2 160107Z 01005KT 07/M01 A3015 RMK A01 T00651008  RH  060%=      5-min Rain = 0
KCL2 160108Z 01005KT 07/M01 A3015 RMK A01 T00651007  RH  060%=      5-min Rain = 0
KCL2 160109Z 01004KT 07/M01 A3015 RMK A01 T00651008  RH  060%=      5-min Rain = 0
KCL2 160110Z 01005KT 07/M01 A3015 RMK A01 T00651008  RH  060%=      5-min Rain = 0
KCL2 160111Z 01005KT 07/M01 A3015 RMK A01 T00651009  RH  059%=      5-min Rain = 0
KCL2 160112Z 01004KT 07/M01 A3015 RMK A01 T00651009  RH  059%=      5-min Rain = 0
KCL2 160113Z 01004KT 07/M01 A3015 RMK A01 T00651009  RH  059%=      5-min Rain = 0
KCL2 160114Z 02004KT 06/M01 A3015 RMK A01 T00641009  RH  059%=      5-min Rain = 0
KCL2 160115Z 02003KT 06/M01 A3015 RMK A01 T00641008  RH  060%=      5-min Rain = 0
KCL2 160116Z 02003KT 06/M01 A3015 RMK A01 T00631008  RH  060%=      5-min Rain = 0
KCL2 160117Z 02004KT 06/M01 A3015 RMK A01 T00631008  RH  060%=      5-min Rain = 0
KCL2 160118Z 02003KT 06/M01 A3015 RMK A01 T00641008  RH  060%=      5-min Rain = 0
KCL2 160119Z 02004KT 06/M01 A3015 RMK A01 T00641008  RH  060%=      5-min Rain = 0
KCL2 160120Z 01004KT 06/M01 A3015 RMK A01 T00641009  RH  060%=      5-min Rain = 0
KCL2 160121Z 02004KT 06/M01 A3015 RMK A01 T00641009  RH  059%=      5-min Rain = 0
KCL2 160122Z 02004KT 06/M01 A3015 RMK A01 T00641009  RH  059%=      5-min Rain = 0
KCL2 160123Z 02003KT 06/M01 A3015 RMK A01 T00641009  RH  059%=      5-min Rain = 0
KCL2 160124Z 03003KT 06/M01 A3015 RMK A01 T00641009  RH  060%=      5-min Rain = 0
KCL2 160125Z 03003KT 06/M01 A3015 RMK A01 T00641008  RH  060%=      5-min Rain = 0
KCL2 160126Z 03003KT 06/M01 A3015 RMK A01 T00641007  RH  060%=      5-min Rain = 0
KCL2 160127Z 03003KT 06/M01 A3016 RMK A01 T00641008  RH  060%=      5-min Rain = 0
KCL2 160128Z 03003KT 06/M01 A3016 RMK A01 T00641008  RH  060%=      5-min Rain = 0
KCL2 160129Z 03002KT 06/M01 A3016 RMK A01 T00641009  RH  060%=      5-min Rain = 0
KCL2 160130Z 03002KT 06/M01 A3016 RMK A01 T00641010  RH  059%=      5-min Rain = 0
KCL2 160131Z 04003KT 06/M01 A3016 RMK A01 T00641011  RH  059%=      5-min Rain = 0
KCL2 160132Z 04002KT 06/M01 A3016 RMK A01 T00641012  RH  058%=      5-min Rain = 0
KCL2 160133Z 05002KT 06/M01 A3016 RMK A01 T00641013  RH  058%=      5-min Rain = 0
KCL2 160134Z 04002KT 06/M01 A3016 RMK A01 T00641014  RH  057%=      5-min Rain = 0
KCL2 160135Z 05002KT 06/M01 A3016 RMK A01 T00641014  RH  057%=      5-min Rain = 0
KCL2 160136Z 05002KT 06/M01 A3016 RMK A01 T00641014  RH  057%=      5-min Rain = 0
KCL2 160137Z 05002KT 06/M01 A3016 RMK A01 T00641012  RH  058%=      5-min Rain = 0
KCL2 160138Z 05001KT 06/M01 A3016 RMK A01 T00641011  RH  059%=      5-min Rain = 0
KCL2 160139Z 05002KT 06/M01 A3016 RMK A01 T00631010  RH  060%=      5-min Rain = 0
KCL2 160140Z 06002KT 06/M01 A3016 RMK A01 T00621011  RH  059%=      5-min Rain = 0
KCL2 160141Z 05002KT 06/M01 A3015 RMK A01 T00611010  RH  061%=      5-min Rain = 0
KCL2 160142Z 07001KT 06/M01 A3015 RMK A01 T00611012  RH  060%=      5-min Rain = 0
KCL2 160143Z 07002KT 06/M01 A3015 RMK A01 T00601014  RH  059%=      5-min Rain = 0
KCL2 160144Z 09001KT 06/M02 A3015 RMK A01 T00611015  RH  058%=      5-min Rain = 0
KCL2 160145Z 07002KT 06/M01 A3015 RMK A01 T00631014  RH  058%=      5-min Rain = 0
KCL2 160146Z 07002KT 06/M02 A3016 RMK A01 T00631015  RH  057%=      5-min Rain = 0
KCL2 160147Z 08001KT 06/M02 A3016 RMK A01 T00631015  RH  057%=      5-min Rain = 0
KCL2 160148Z 07002KT 06/M02 A3016 RMK A01 T00641015  RH  057%=      5-min Rain = 0
KCL2 160149Z 08001KT 06/M02 A3016 RMK A01 T00641015  RH  057%=      5-min Rain = 0
KCL2 160150Z 07001KT 06/M01 A3016 RMK A01 T00631013  RH  058%=      5-min Rain = 0
KCL2 160151Z 06002KT 06/M01 A3016 RMK A01 T00611013  RH  059%=      5-min Rain = 0
KCL2 160152Z 07001KT 06/M01 A3016 RMK A01 T00611014  RH  058%=      5-min Rain = 0
KCL2 160153Z 06001KT 06/M02 A3016 RMK A01 T00611015  RH  058%=      5-min Rain = 0
KCL2 160154Z 07001KT 06/M02 A3016 RMK A01 T00611016  RH  058%=      5-min Rain = 0
KCL2 160155Z 07001KT 06/M02 A3016 RMK A01 T00621015  RH  058%=      5-min Rain = 0
KCL2 160156Z 06002KT 06/M01 A3016 RMK A01 T00601013  RH  059%=      5-min Rain = 0
KCL2 160157Z 07002KT 06/M01 A3016 RMK A01 T00581014  RH  060%=      5-min Rain = 0
KCL2 160158Z 06002KT 06/M02 A3016 RMK A01 T00571015  RH  060%=      5-min Rain = 0
KCL2 160159Z 06002KT 06/M02 A3016 RMK A01 T00571016  RH  059%=      5-min Rain = 0
KCL2 160200Z 06002KT 06/M02 A3016 RMK A01 T00581016  RH  059%=      5-min Rain = 0
KCL2 160201Z 07002KT 06/M02 A3016 RMK A01 T00581016  RH  059%=      5-min Rain = 0
KCL2 160202Z 07002KT 06/M02 A3016 RMK A01 T00591015  RH  059%=      5-min Rain = 0
KCL2 160203Z 08002KT 06/M02 A3016 RMK A01 T00591015  RH  059%=      5-min Rain = 0
KCL2 160204Z 08001KT 06/M02 A3016 RMK A01 T00581016  RH  059%=      5-min Rain = 0
KCL2 160205Z 09002KT 06/M02 A3016 RMK A01 T00581017  RH  059%=      5-min Rain = 0
KCL2 160206Z 08002KT 06/M02 A3016 RMK A01 T00581017  RH  059%=      5-min Rain = 0
KCL2 160207Z 09002KT 06/M02 A3016 RMK A01 T00581017  RH  059%=      5-min Rain = 0
KCL2 160208Z 09002KT 06/M02 A3016 RMK A01 T00581017  RH  058%=      5-min Rain = 0
KCL2 160209Z 10002KT 06/M02 A3016 RMK A01 T00581018  RH  058%=      5-min Rain = 0
KCL2 160210Z 11002KT 06/M02 A3016 RMK A01 T00581018  RH  058%=      5-min Rain = 0
KCL2 160211Z 10002KT 06/M02 A3016 RMK A01 T00581018  RH  058%=      5-min Rain = 0
KCL2 160212Z 10002KT 06/M02 A3016 RMK A01 T00581019  RH  058%=      5-min Rain = 0
KCL2 160213Z 11002KT 06/M02 A3016 RMK A01 T00571019  RH  058%=      5-min Rain = 0
KCL2 160214Z 11002KT 06/M02 A3016 RMK A01 T00561021  RH  058%=      5-min Rain = 0
KCL2 160215Z 11002KT 06/M02 A3016 RMK A01 T00561021  RH  057%=      5-min Rain = 0
KCL2 160216Z 11002KT 06/M02 A3016 RMK A01 T00571021  RH  057%=      5-min Rain = 0
KCL2 160217Z 11002KT 06/M02 A3016 RMK A01 T00581021  RH  057%=      5-min Rain = 0
KCL2 160218Z 11002KT 06/M02 A3016 RMK A01 T00591021  RH  056%=      5-min Rain = 0
KCL2 160219Z 10002KT 06/M02 A3016 RMK A01 T00601021  RH  056%=      5-min Rain = 0
KCL2 160220Z 10002KT 06/M02 A3016 RMK A01 T00601021  RH  056%=      5-min Rain = 0
KCL2 160221Z 11002KT 06/M02 A3016 RMK A01 T00601021  RH  056%=      5-min Rain = 0
KCL2 160222Z 11003KT 06/M02 A3016 RMK A01 T00601021  RH  056%=      5-min Rain = 0
KCL2 160223Z 11002KT 06/M02 A3016 RMK A01 T00581021  RH  057%=      5-min Rain = 0
KCL2 160224Z 12002KT 06/M02 A3016 RMK A01 T00551022  RH  058%=      5-min Rain = 0
KCL2 160225Z 12002KT 05/M02 A3017 RMK A01 T00521022  RH  059%=      5-min Rain = 0
KCL2 160226Z 12002KT 05/M02 A3017 RMK A01 T00491023  RH  059%=      5-min Rain = 0
KCL2 160227Z 12002KT 05/M02 A3017 RMK A01 T00491023  RH  060%=      5-min Rain = 0
KCL2 160228Z 11002KT 05/M02 A3017 RMK A01 T00491023  RH  060%=      5-min Rain = 0
KCL2 160229Z 11002KT 05/M02 A3017 RMK A01 T00501022  RH  059%=      5-min Rain = 0
KCL2 160230Z 11002KT 05/M02 A3017 RMK A01 T00521022  RH  059%=      5-min Rain = 0
KCL2 160231Z 11002KT 06/M02 A3017 RMK A01 T00551022  RH  058%=      5-min Rain = 0
KCL2 160232Z 11002KT 06/M02 A3017 RMK A01 T00561022  RH  057%=      5-min Rain = 0
KCL2 160233Z 11002KT 06/M02 A3017 RMK A01 T00581021  RH  057%=      5-min Rain = 0
KCL2 160234Z 11002KT 06/M02 A3017 RMK A01 T00591021  RH  057%=      5-min Rain = 0
KCL2 160235Z 11002KT 06/M02 A3017 RMK A01 T00581020  RH  057%=      5-min Rain = 0
KCL2 160236Z 11002KT 06/M02 A3017 RMK A01 T00571019  RH  058%=      5-min Rain = 0
KCL2 160237Z 11002KT 05/M02 A3017 RMK A01 T00531015  RH  062%=      5-min Rain = 0
KCL2 160238Z 11002KT 05/M02 A3017 RMK A01 T00491016  RH  063%=      5-min Rain = 0
KCL2 160239Z 12002KT 05/M02 A3017 RMK A01 T00451020  RH  063%=      5-min Rain = 0
KCL2 160240Z 12003KT 04/M02 A3017 RMK A01 T00411018  RH  066%=      5-min Rain = 0
KCL2 160241Z 12003KT 04/M01 A3017 RMK A01 T00391012  RH  070%=      5-min Rain = 0
KCL2 160242Z 12003KT 04/M01 A3017 RMK A01 T00371012  RH  070%=      5-min Rain = 0
KCL2 160243Z 12003KT 04/M01 A3017 RMK A01 T00361013  RH  071%=      5-min Rain = 0
KCL2 160244Z 12003KT 04/M01 A3017 RMK A01 T00351012  RH  071%=      5-min Rain = 0
KCL2 160245Z 12003KT 03/M02 A3017 RMK A01 T00341015  RH  070%=      5-min Rain = 0
KCL2 160246Z 12003KT 03/M02 A3017 RMK A01 T00341015  RH  071%=      5-min Rain = 0
KCL2 160247Z 12003KT 03/M02 A3017 RMK A01 T00341016  RH  070%=      5-min Rain = 0
KCL2 160248Z 12004KT 03/M02 A3017 RMK A01 T00341017  RH  070%=      5-min Rain = 0
KCL2 160249Z 12004KT 03/M02 A3017 RMK A01 T00341016  RH  070%=      5-min Rain = 0
KCL2 160250Z 13004KT 04/M02 A3017 RMK A01 T00351017  RH  069%=      5-min Rain = 0
KCL2 160251Z 13004KT 04/M02 A3017 RMK A01 T00381019  RH  067%=      5-min Rain = 0
KCL2 160252Z 13004KT 04/M02 A3017 RMK A01 T00391020  RH  066%=      5-min Rain = 0
KCL2 160253Z 13004KT 04/M02 A3017 RMK A01 T00391019  RH  066%=      5-min Rain = 0
KCL2 160254Z 13004KT 04/M02 A3017 RMK A01 T00401017  RH  067%=      5-min Rain = 0
KCL2 160255Z 13004KT 04/M02 A3017 RMK A01 T00401015  RH  067%=      5-min Rain = 0
KCL2 160256Z 14004KT 04/M01 A3017 RMK A01 T00401013  RH  068%=      5-min Rain = 0
KCL2 160257Z 13004KT 04/M01 A3017 RMK A01 T00381011  RH  070%=      5-min Rain = 0
KCL2 160258Z 14004KT 04/M01 A3017 RMK A01 T00371012  RH  070%=      5-min Rain = 0
KCL2 160259Z 13004KT 04/M02 A3017 RMK A01 T00361015  RH  069%=      5-min Rain = 0
KCL2 160300Z 13004KT 04/M02 A3017 RMK A01 T00371018  RH  067%=      5-min Rain = 0
KCL2 160301Z 13004KT 04/M02 A3017 RMK A01 T00391017  RH  067%=      5-min Rain = 0
KCL2 160302Z 13004KT 04/M02 A3017 RMK A01 T00401018  RH  066%=      5-min Rain = 0
KCL2 160303Z 13004KT 04/M02 A3017 RMK A01 T00411017  RH  066%=      5-min Rain = 0
KCL2 160304Z 13004KT 04/M02 A3017 RMK A01 T00421015  RH  067%=      5-min Rain = 0
KCL2 160305Z 13004KT 04/M02 A3017 RMK A01 T00431015  RH  066%=      5-min Rain = 0
KCL2 160306Z 14004KT 04/M02 A3017 RMK A01 T00441016  RH  065%=      5-min Rain = 0
KCL2 160307Z 14004KT 04/M02 A3017 RMK A01 T00431017  RH  065%=      5-min Rain = 0
KCL2 160308Z 15003KT 04/M02 A3017 RMK A01 T00431019  RH  064%=      5-min Rain = 0
KCL2 160309Z 15003KT 04/M02 A3017 RMK A01 T00431021  RH  063%=      5-min Rain = 0
KCL2 160310Z 15003KT 04/M02 A3017 RMK A01 T00431022  RH  063%=      5-min Rain = 0
KCL2 160311Z 15003KT 05/M02 A3017 RMK A01 T00451022  RH  062%=      5-min Rain = 0
KCL2 160312Z 15004KT 05/M02 A3017 RMK A01 T00481023  RH  060%=      5-min Rain = 0
KCL2 160313Z 14003KT 05/M02 A3017 RMK A01 T00491023  RH  060%=      5-min Rain = 0
KCL2 160314Z 14003KT 05/M02 A3017 RMK A01 T00491023  RH  060%=      5-min Rain = 0
KCL2 160315Z 14003KT 05/M02 A3017 RMK A01 T00501022  RH  059%=      5-min Rain = 0
KCL2 160316Z 14003KT 05/M02 A3017 RMK A01 T00501023  RH  059%=      5-min Rain = 0
KCL2 160317Z 13003KT 05/M02 A3017 RMK A01 T00501022  RH  059%=      5-min Rain = 0
KCL2 160318Z 13003KT 05/M02 A3017 RMK A01 T00501021  RH  060%=      5-min Rain = 0
KCL2 160319Z 13003KT 05/M02 A3017 RMK A01 T00511021  RH  060%=      5-min Rain = 0
KCL2 160320Z 12003KT 05/M02 A3017 RMK A01 T00511021  RH  060%=      5-min Rain = 0
KCL2 160321Z 12003KT 05/M02 A3017 RMK A01 T00501020  RH  061%=      5-min Rain = 0
KCL2 160322Z 12003KT 05/M02 A3017 RMK A01 T00471018  RH  063%=      5-min Rain = 0
KCL2 160323Z 12003KT 04/M02 A3017 RMK A01 T00441017  RH  064%=      5-min Rain = 0
KCL2 160324Z 12003KT 04/M02 A3017 RMK A01 T00401016  RH  067%=      5-min Rain = 0
KCL2 160325Z 12003KT 04/M01 A3017 RMK A01 T00371014  RH  070%=      5-min Rain = 0
KCL2 160326Z 13003KT 03/M01 A3017 RMK A01 T00331014  RH  071%=      5-min Rain = 0
KCL2 160327Z 13003KT 03/M02 A3017 RMK A01 T00301015  RH  072%=      5-min Rain = 0
KCL2 160328Z 14003KT 03/M02 A3017 RMK A01 T00281016  RH  073%=      5-min Rain = 0
KCL2 160329Z 14004KT 03/M02 A3017 RMK A01 T00271017  RH  073%=      5-min Rain = 0
KCL2 160330Z 14004KT 03/M02 A3017 RMK A01 T00271015  RH  074%=      5-min Rain = 0
KCL2 160331Z 14004KT 03/M02 A3017 RMK A01 T00281015  RH  073%=      5-min Rain = 0
KCL2 160332Z 14004KT 03/M02 A3017 RMK A01 T00301019  RH  070%=      5-min Rain = 0
KCL2 160333Z 14004KT 03/M02 A3017 RMK A01 T00341021  RH  067%=      5-min Rain = 0
KCL2 160334Z 14004KT 04/M02 A3017 RMK A01 T00391021  RH  065%=      5-min Rain = 0
KCL2 160335Z 14004KT 04/M02 A3017 RMK A01 T00431021  RH  063%=      5-min Rain = 0
KCL2 160336Z 14004KT 05/M02 A3017 RMK A01 T00461022  RH  061%=      5-min Rain = 0
KCL2 160337Z 14004KT 05/M02 A3017 RMK A01 T00471022  RH  061%=      5-min Rain = 0
KCL2 160338Z 14004KT 05/M02 A3017 RMK A01 T00471023  RH  060%=      5-min Rain = 0
KCL2 160339Z 14004KT 05/M02 A3017 RMK A01 T00481023  RH  060%=      5-min Rain = 0
KCL2 160340Z 14004KT 05/M02 A3017 RMK A01 T00471023  RH  060%=      5-min Rain = 0
KCL2 160341Z 14004KT 05/M02 A3017 RMK A01 T00471022  RH  061%=      5-min Rain = 0
KCL2 160342Z 14004KT 05/M02 A3017 RMK A01 T00471023  RH  060%=      5-min Rain = 0
KCL2 160343Z 14004KT 05/M02 A3017 RMK A01 T00481024  RH  059%=      5-min Rain = 0
KCL2 160344Z 14004KT 05/M02 A3017 RMK A01 T00491023  RH  060%=      5-min Rain = 0
KCL2 160345Z 14004KT 05/M02 A3017 RMK A01 T00471023  RH  061%=      5-min Rain = 0
KCL2 160346Z 14004KT 05/M02 A3017 RMK A01 T00461021  RH  062%=      5-min Rain = 0
KCL2 160347Z 14004KT 04/M02 A3017 RMK A01 T00441019  RH  063%=      5-min Rain = 0
KCL2 160348Z 14004KT 04/M02 A3017 RMK A01 T00421018  RH  065%=      5-min Rain = 0
KCL2 160349Z 14004KT 04/M02 A3017 RMK A01 T00401017  RH  067%=      5-min Rain = 0
KCL2 160350Z 14004KT 04/M02 A3017 RMK A01 T00371017  RH  068%=      5-min Rain = 0
KCL2 160351Z 14003KT 04/M02 A3017 RMK A01 T00361017  RH  068%=      5-min Rain = 0
KCL2 160352Z 14003KT 04/M02 A3017 RMK A01 T00351017  RH  068%=      5-min Rain = 0
KCL2 160353Z 14003KT 04/M02 A3017 RMK A01 T00351018  RH  068%=      5-min Rain = 0
KCL2 160354Z 13003KT 04/M02 A3017 RMK A01 T00361020  RH  067%=      5-min Rain = 0
KCL2 160355Z 13003KT 04/M02 A3017 RMK A01 T00361020  RH  067%=      5-min Rain = 0
KCL2 160356Z 13003KT 04/M02 A3017 RMK A01 T00361020  RH  067%=      5-min Rain = 0
KCL2 160357Z 13004KT 04/M02 A3017 RMK A01 T00361018  RH  068%=      5-min Rain = 0
KCL2 160358Z 14004KT 04/M02 A3017 RMK A01 T00351018  RH  069%=      5-min Rain = 0
KCL2 160359Z 15003KT 03/M02 A3017 RMK A01 T00341017  RH  069%=      5-min Rain = 0
KCL2 160400Z 15003KT 03/M02 A3017 RMK A01 T00321017  RH  070%=      5-min Rain = 0
KCL2 160401Z 16003KT 03/M02 A3017 RMK A01 T00311017  RH  071%=      5-min Rain = 0
KCL2 160402Z 16004KT 03/M02 A3017 RMK A01 T00321019  RH  069%=      5-min Rain = 0
KCL2 160403Z 16004KT 03/M02 A3017 RMK A01 T00341023  RH  066%=      5-min Rain = 0
KCL2 160404Z 16005KT 04/M02 A3017 RMK A01 T00381023  RH  064%=      5-min Rain = 0
KCL2 160405Z 17005KT 04/M02 A3017 RMK A01 T00391022  RH  065%=      5-min Rain = 0
KCL2 160406Z 17006KT 04/M02 A3017 RMK A01 T00381021  RH  065%=      5-min Rain = 0
KCL2 160407Z 17005KT 04/M02 A3017 RMK A01 T00381022  RH  065%=      5-min Rain = 0
KCL2 160408Z 17005KT 04/M02 A3017 RMK A01 T00401022  RH  064%=      5-min Rain = 0
KCL2 160409Z 17005KT 04/M02 A3017 RMK A01 T00411022  RH  063%=      5-min Rain = 0
KCL2 160410Z 17005KT 04/M02 A3017 RMK A01 T00421022  RH  063%=      5-min Rain = 0
KCL2 160411Z 16005KT 04/M02 A3017 RMK A01 T00421022  RH  063%=      5-min Rain = 0
KCL2 160412Z 16005KT 04/M02 A3017 RMK A01 T00421022  RH  063%=      5-min Rain = 0
KCL2 160413Z 16005KT 04/M02 A3017 RMK A01 T00431022  RH  063%=      5-min Rain = 0
KCL2 160414Z 16005KT 04/M02 A3017 RMK A01 T00431021  RH  063%=      5-min Rain = 0
KCL2 160415Z 16004KT 04/M02 A3017 RMK A01 T00421020  RH  064%=      5-min Rain = 0
KCL2 160416Z 16004KT 04/M02 A3017 RMK A01 T00401020  RH  065%=      5-min Rain = 0
KCL2 160417Z 16004KT 04/M02 A3017 RMK A01 T00381021  RH  065%=      5-min Rain = 0
KCL2 160418Z 16004KT 04/M02 A3017 RMK A01 T00371022  RH  065%=      5-min Rain = 0
KCL2 160419Z 16004KT 04/M02 A3017 RMK A01 T00381020  RH  066%=      5-min Rain = 0
KCL2 160420Z 16004KT 04/M02 A3017 RMK A01 T00381018  RH  066%=      5-min Rain = 0
KCL2 160421Z 16004KT 04/M02 A3017 RMK A01 T00381018  RH  067%=      5-min Rain = 0
KCL2 160422Z 16004KT 04/M02 A3017 RMK A01 T00371019  RH  067%=      5-min Rain = 0
KCL2 160423Z 16004KT 04/M02 A3017 RMK A01 T00361020  RH  067%=      5-min Rain = 0
KCL2 160424Z 16005KT 04/M02 A3017 RMK A01 T00361019  RH  067%=      5-min Rain = 0
KCL2 160425Z 16005KT 04/M02 A3017 RMK A01 T00361019  RH  067%=      5-min Rain = 0
KCL2 160426Z 17005KT 04/M02 A3017 RMK A01 T00371020  RH  066%=      5-min Rain = 0
KCL2 160427Z 17005KT 04/M02 A3017 RMK A01 T00381020  RH  066%=      5-min Rain = 0
KCL2 160428Z 17006KT 04/M02 A3017 RMK A01 T00381020  RH  066%=      5-min Rain = 0
KCL2 160429Z 17006KT 04/M02 A3017 RMK A01 T00371020  RH  066%=      5-min Rain = 0
KCL2 160430Z 16006KT 04/M02 A3017 RMK A01 T00361020  RH  067%=      5-min Rain = 0
KCL2 160431Z 17006KT 04/M02 A3017 RMK A01 T00351021  RH  067%=      5-min Rain = 0
KCL2 160432Z 17005KT 04/M02 A3017 RMK A01 T00351022  RH  066%=      5-min Rain = 0
KCL2 160433Z 17006KT 04/M02 A3017 RMK A01 T00361021  RH  066%=      5-min Rain = 0
KCL2 160434Z 17006KT 04/M02 A3017 RMK A01 T00361021  RH  066%=      5-min Rain = 0
KCL2 160435Z 17006KT 04/M02 A3016 RMK A01 T00361021  RH  066%=      5-min Rain = 0
KCL2 160436Z 17005KT 04/M02 A3016 RMK A01 T00361021  RH  066%=      5-min Rain = 0
KCL2 160437Z 16006KT 04/M02 A3016 RMK A01 T00361021  RH  066%=      5-min Rain = 0
KCL2 160438Z 16006KT 04/M02 A3016 RMK A01 T00361021  RH  066%=      5-min Rain = 0
KCL2 160439Z 16006KT 04/M02 A3016 RMK A01 T00361021  RH  066%=      5-min Rain = 0
KCL2 160440Z 16006KT 04/M02 A3016 RMK A01 T00361022  RH  066%=      5-min Rain = 0
KCL2 160441Z 16006KT 04/M02 A3016 RMK A01 T00381021  RH  066%=      5-min Rain = 0
KCL2 160442Z 16005KT 04/M02 A3016 RMK A01 T00391020  RH  065%=      5-min Rain = 0
KCL2 160443Z 16005KT 04/M02 A3016 RMK A01 T00391020  RH  065%=      5-min Rain = 0
KCL2 160444Z 16005KT 04/M02 A3016 RMK A01 T00391019  RH  066%=      5-min Rain = 0
KCL2 160445Z 16005KT 04/M02 A3016 RMK A01 T00371019  RH  066%=      5-min Rain = 0
KCL2 160446Z 16005KT 04/M02 A3016 RMK A01 T00361020  RH  067%=      5-min Rain = 0
KCL2 160447Z 16005KT 04/M02 A3016 RMK A01 T00361021  RH  066%=      5-min Rain = 0
KCL2 160448Z 16005KT 04/M02 A3016 RMK A01 T00371021  RH  066%=      5-min Rain = 0
KCL2 160449Z 16005KT 04/M02 A3016 RMK A01 T00371021  RH  065%=      5-min Rain = 0
KCL2 160450Z 16005KT 04/M02 A3016 RMK A01 T00381021  RH  065%=      5-min Rain = 0
KCL2 160451Z 16005KT 04/M02 A3016 RMK A01 T00391021  RH  065%=      5-min Rain = 0
KCL2 160452Z 16005KT 04/M02 A3016 RMK A01 T00401022  RH  064%=      5-min Rain = 0
KCL2 160453Z 16005KT 04/M02 A3016 RMK A01 T00401022  RH  064%=      5-min Rain = 0
KCL2 160454Z 16005KT 04/M02 A3016 RMK A01 T00401022  RH  064%=      5-min Rain = 0
KCL2 160455Z 16005KT 04/M02 A3016 RMK A01 T00401022  RH  064%=      5-min Rain = 0
KCL2 160456Z 16005KT 04/M02 A3016 RMK A01 T00401022  RH  064%=      5-min Rain = 0
KCL2 160457Z 15005KT 04/M02 A3016 RMK A01 T00401022  RH  064%=      5-min Rain = 0
KCL2 160458Z 15005KT 04/M02 A3016 RMK A01 T00401022  RH  064%=      5-min Rain = 0
KCL2 160459Z 15005KT 04/M02 A3016 RMK A01 T00401022  RH  064%=      5-min Rain = 0
KCL2 160500Z 16005KT 04/M02 A3016 RMK A01 T00411023  RH  063%=      5-min Rain = 0
KCL2 160501Z 16005KT 04/M02 A3016 RMK A01 T00421022  RH  063%=      5-min Rain = 0
KCL2 160502Z 16005KT 04/M02 A3016 RMK A01 T00421021  RH  063%=      5-min Rain = 0
KCL2 160503Z 16005KT 04/M02 A3016 RMK A01 T00421021  RH  064%=      5-min Rain = 0
KCL2 160504Z 16005KT 04/M02 A3016 RMK A01 T00411022  RH  064%=      5-min Rain = 0
KCL2 160505Z 16004KT 04/M02 A3015 RMK A01 T00401022  RH  064%=      5-min Rain = 0
KCL2 160506Z 16004KT 04/M02 A3015 RMK A01 T00401021  RH  065%=      5-min Rain = 0
KCL2 160507Z 16004KT 04/M02 A3015 RMK A01 T00391021  RH  065%=      5-min Rain = 0
KCL2 160508Z 16004KT 04/M02 A3016 RMK A01 T00391021  RH  065%=      5-min Rain = 0
KCL2 160509Z 16004KT 04/M02 A3016 RMK A01 T00401021  RH  064%=      5-min Rain = 0
KCL2 160510Z 16004KT 04/M02 A3016 RMK A01 T00401022  RH  064%=      5-min Rain = 0
KCL2 160511Z 16004KT 04/M02 A3016 RMK A01 T00401022  RH  064%=      5-min Rain = 0
KCL2 160512Z 16004KT 04/M02 A3015 RMK A01 T00411022  RH  064%=      5-min Rain = 0
KCL2 160513Z 16004KT 04/M02 A3015 RMK A01 T00401022  RH  064%=      5-min Rain = 0
KCL2 160514Z 16004KT 04/M02 A3015 RMK A01 T00401022  RH  064%=      5-min Rain = 0
KCL2 160515Z 16004KT 04/M02 A3015 RMK A01 T00401023  RH  063%=      5-min Rain = 0
KCL2 160516Z 16004KT 04/M02 A3015 RMK A01 T00401022  RH  064%=      5-min Rain = 0
KCL2 160517Z 16005KT 04/M02 A3015 RMK A01 T00401023  RH  064%=      5-min Rain = 0
KCL2 160518Z 17005KT 04/M02 A3015 RMK A01 T00401023  RH  064%=      5-min Rain = 0
KCL2 160519Z 17005KT 04/M02 A3015 RMK A01 T00391022  RH  064%=      5-min Rain = 0
KCL2 160520Z 17005KT 04/M02 A3015 RMK A01 T00381023  RH  064%=      5-min Rain = 0
KCL2 160521Z 16004KT 04/M02 A3015 RMK A01 T00371024  RH  064%=      5-min Rain = 0
KCL2 160522Z 16004KT 04/M02 A3015 RMK A01 T00361023  RH  065%=      5-min Rain = 0
KCL2 160523Z 17004KT 04/M02 A3015 RMK A01 T00361022  RH  066%=      5-min Rain = 0
KCL2 160524Z 17005KT 04/M02 A3015 RMK A01 T00361021  RH  066%=      5-min Rain = 0
KCL2 160525Z 17005KT 04/M02 A3015 RMK A01 T00371022  RH  066%=      5-min Rain = 0
KCL2 160526Z 17005KT 04/M02 A3015 RMK A01 T00371023  RH  065%=      5-min Rain = 0
KCL2 160527Z 17005KT 04/M02 A3015 RMK A01 T00381024  RH  064%=      5-min Rain = 0
KCL2 160528Z 17005KT 04/M03 A3015 RMK A01 T00381025  RH  063%=      5-min Rain = 0
KCL2 160529Z 17006KT 04/M03 A3015 RMK A01 T00391025  RH  063%=      5-min Rain = 0
KCL2 160530Z 17005KT 04/M03 A3015 RMK A01 T00391025  RH  063%=      5-min Rain = 0
KCL2 160531Z 16005KT 04/M03 A3015 RMK A01 T00381025  RH  063%=      5-min Rain = 0
KCL2 160532Z 16005KT 04/M03 A3015 RMK A01 T00381025  RH  063%=      5-min Rain = 0
KCL2 160533Z 16005KT 04/M03 A3015 RMK A01 T00391026  RH  063%=      5-min Rain = 0
KCL2 160534Z 16005KT 04/M03 A3015 RMK A01 T00401025  RH  063%=      5-min Rain = 0
KCL2 160535Z 16006KT 04/M03 A3015 RMK A01 T00401025  RH  062%=      5-min Rain = 0
KCL2 160536Z 17006KT 04/M03 A3015 RMK A01 T00401025  RH  063%=      5-min Rain = 0
KCL2 160537Z 17005KT 04/M03 A3015 RMK A01 T00401025  RH  063%=      5-min Rain = 0
KCL2 160538Z 17005KT 04/M02 A3015 RMK A01 T00391024  RH  063%=      5-min Rain = 0
KCL2 160539Z 17005KT 04/M02 A3015 RMK A01 T00381024  RH  064%=      5-min Rain = 0
KCL2 160540Z 16005KT 04/M02 A3015 RMK A01 T00381024  RH  064%=      5-min Rain = 0
KCL2 160541Z 16004KT 04/M03 A3015 RMK A01 T00381025  RH  064%=      5-min Rain = 0
KCL2 160542Z 17004KT 04/M03 A3015 RMK A01 T00391025  RH  063%=      5-min Rain = 0
KCL2 160543Z 16004KT 04/M02 A3015 RMK A01 T00401023  RH  063%=      5-min Rain = 0
KCL2 160544Z 16004KT 04/M02 A3015 RMK A01 T00401022  RH  064%=      5-min Rain = 0
KCL2 160545Z 16004KT 04/M02 A3015 RMK A01 T00391023  RH  064%=      5-min Rain = 0
KCL2 160546Z 16004KT 04/M02 A3015 RMK A01 T00381024  RH  064%=      5-min Rain = 0
KCL2 160547Z 16004KT 04/M02 A3015 RMK A01 T00371023  RH  065%=      5-min Rain = 0
KCL2 160548Z 16003KT 04/M02 A3015 RMK A01 T00361022  RH  066%=      5-min Rain = 0
KCL2 160549Z 16003KT 04/M02 A3014 RMK A01 T00351021  RH  066%=      5-min Rain = 0
KCL2 160550Z 16004KT 03/M02 A3014 RMK A01 T00341023  RH  066%=      5-min Rain = 0
KCL2 160551Z 15004KT 03/M02 A3014 RMK A01 T00341023  RH  066%=      5-min Rain = 0
KCL2 160552Z 15005KT 03/M02 A3014 RMK A01 T00331023  RH  067%=      5-min Rain = 0
KCL2 160553Z 15005KT 03/M02 A3014 RMK A01 T00331022  RH  067%=      5-min Rain = 0
KCL2 160554Z 15004KT 03/M02 A3014 RMK A01 T00331021  RH  068%=      5-min Rain = 0
KCL2 160555Z 15004KT 03/M02 A3014 RMK A01 T00321021  RH  068%=      5-min Rain = 0
KCL2 160556Z 15004KT 03/M02 A3014 RMK A01 T00311021  RH  069%=      5-min Rain = 0
KCL2 160557Z 15004KT 03/M02 A3014 RMK A01 T00311021  RH  069%=      5-min Rain = 0
KCL2 160558Z 15005KT 03/M02 A3014 RMK A01 T00311021  RH  069%=      5-min Rain = 0
KCL2 160559Z 15005KT 03/M02 A3014 RMK A01 T00311021  RH  069%=      5-min Rain = 0

Page generated in 0.168 seconds.